Observation data for Aiken on 11/14/2019      Previous  Date  Next       Current Mesonet Observations  Soil Data  Daily Summary Page  Observations in Plain Language
KAI1 140600Z 35009KT M00/M03 A301 RMK A01 T10011030  RH  081%=      5-min Rain = 0
KAI1 140601Z 35008KT M00/M03 A301 RMK A01 T10011030  RH  080%=      5-min Rain = 0
KAI1 140602Z 35008KT 00/03 A301 RMK A01 T00000-30  RH  080%=      5-min Rain = 0
KAI1 140603Z 35008KT 00/03 A301 RMK A01 T00000-31  RH  080%=      5-min Rain = 0
KAI1 140604Z 35008KT 00/03 A301 RMK A01 T00-00-31  RH  080%=      5-min Rain = 0
KAI1 140605Z 35009KT 00/03 A301 RMK A01 T00000-31  RH  080%=      5-min Rain = 0
KAI1 140606Z 35009KT 00/03 A301 RMK A01 T00000-30  RH  080%=      5-min Rain = 0
KAI1 140607Z 35009KT 00/03 A301 RMK A01 T00000-30  RH  080%=      5-min Rain = 0
KAI1 140608Z 35009KT 00/M03 A301 RMK A01 T00011030  RH  080%=      5-min Rain = 0
KAI1 140609Z 35009KT 00/M03 A301 RMK A01 T00011030  RH  080%=      5-min Rain = 0
KAI1 140610Z 35009KT 00/M03 A301 RMK A01 T00021029  RH  080%=      5-min Rain = 0
KAI1 140611Z 35009KT 00/M03 A301 RMK A01 T00031029  RH  080%=      5-min Rain = 0
KAI1 140612Z 35009KT 00/M03 A301 RMK A01 T00041028  RH  079%=      5-min Rain = 0
KAI1 140613Z 35009KT 00/M03 A301 RMK A01 T00041027  RH  079%=      5-min Rain = 0
KAI1 140614Z 35009KT 00/M03 A301 RMK A01 T00041027  RH  079%=      5-min Rain = 0
KAI1 140615Z 35009KT 01/M03 A301 RMK A01 T00051027  RH  079%=      5-min Rain = 0
KAI1 140616Z 35009KT 01/M03 A301 RMK A01 T00051027  RH  079%=      5-min Rain = 0
KAI1 140617Z 35009KT 01/M03 A301 RMK A01 T00061026  RH  079%=      5-min Rain = 0
KAI1 140618Z 35010KT 01/M03 A301 RMK A01 T00071026  RH  079%=      5-min Rain = 0
KAI1 140619Z 35010KT 01/M03 A301 RMK A01 T00081026  RH  079%=      5-min Rain = 0
KAI1 140620Z 35010KT 01/M03 A301 RMK A01 T00081025  RH  078%=      5-min Rain = 0
KAI1 140621Z 35011KT 01/M03 A301 RMK A01 T00091025  RH  078%=      5-min Rain = 0
KAI1 140622Z 35010KT 01/M03 A3011 RMK A01 T00091025  RH  078%=      5-min Rain = 0
KAI1 140623Z 35010KT 01/M03 A3011 RMK A01 T00101025  RH  078%=      5-min Rain = 0
KAI1 140624Z 35010KT 01/M02 A3011 RMK A01 T00111024  RH  078%=      5-min Rain = 0
KAI1 140625Z 35010KT 01/M02 A3011 RMK A01 T00111024  RH  077%=      5-min Rain = 0
KAI1 140626Z 35010KT 01/M03 A3011 RMK A01 T00111025  RH  077%=      5-min Rain = 0
KAI1 140627Z 35010KT 01/M02 A3011 RMK A01 T00111024  RH  077%=      5-min Rain = 0
KAI1 140628Z 35009KT 01/M02 A3011 RMK A01 T00121024  RH  077%=      5-min Rain = 0
KAI1 140629Z 35010KT 01/M02 A3011 RMK A01 T00121024  RH  077%=      5-min Rain = 0
KAI1 140630Z 35010KT 01/M02 A3011 RMK A01 T00121024  RH  077%=      5-min Rain = 0
KAI1 140631Z 35009KT 01/M02 A3011 RMK A01 T00121024  RH  077%=      5-min Rain = 0
KAI1 140632Z 35009KT 01/M02 A3011 RMK A01 T00121024  RH  077%=      5-min Rain = 0
KAI1 140633Z 35009KT 01/M02 A3011 RMK A01 T00121024  RH  077%=      5-min Rain = 0
KAI1 140634Z 35009KT 01/M03 A3011 RMK A01 T00121025  RH  077%=      5-min Rain = 0
KAI1 140635Z 35009KT 01/M03 A3011 RMK A01 T00111025  RH  077%=      5-min Rain = 0
KAI1 140636Z 35010KT 01/M03 A3011 RMK A01 T00111025  RH  077%=      5-min Rain = 0
KAI1 140637Z 35010KT 01/M02 A3011 RMK A01 T00121024  RH  077%=      5-min Rain = 0
KAI1 140638Z 35010KT 01/M02 A3011 RMK A01 T00131024  RH  077%=      5-min Rain = 0
KAI1 140639Z 36010KT 01/M02 A3012 RMK A01 T00141024  RH  076%=      5-min Rain = 0
KAI1 140640Z 35010KT 01/M02 A3012 RMK A01 T00141024  RH  076%=      5-min Rain = 0
KAI1 140641Z 35010KT 01/M02 A3012 RMK A01 T00141024  RH  075%=      5-min Rain = 0
KAI1 140642Z 36010KT 01/M02 A3012 RMK A01 T00141024  RH  075%=      5-min Rain = 0
KAI1 140643Z 36010KT 02/M02 A3012 RMK A01 T00151024  RH  075%=      5-min Rain = 0
KAI1 140644Z 36010KT 02/M02 A3012 RMK A01 T00151024  RH  075%=      5-min Rain = 0
KAI1 140645Z 36010KT 02/M02 A3012 RMK A01 T00151024  RH  075%=      5-min Rain = 0
KAI1 140646Z 36009KT 02/M02 A3012 RMK A01 T00151024  RH  075%=      5-min Rain = 0
KAI1 140647Z 36009KT 02/M03 A3012 RMK A01 T00151025  RH  075%=      5-min Rain = 0
KAI1 140648Z 36009KT 02/M03 A3012 RMK A01 T00151025  RH  075%=      5-min Rain = 0
KAI1 140649Z 36009KT 01/M03 A3012 RMK A01 T00141025  RH  075%=      5-min Rain = 0
KAI1 140650Z 35009KT 01/M03 A3012 RMK A01 T00141025  RH  075%=      5-min Rain = 0
KAI1 140651Z 36009KT 01/M03 A3012 RMK A01 T00131026  RH  075%=      5-min Rain = 0
KAI1 140652Z 36009KT 01/M03 A3012 RMK A01 T00131025  RH  075%=      5-min Rain = 0
KAI1 140653Z 36009KT 01/M03 A3012 RMK A01 T00131026  RH  075%=      5-min Rain = 0
KAI1 140654Z 36009KT 01/M03 A3012 RMK A01 T00141025  RH  075%=      5-min Rain = 0
KAI1 140655Z 00009KT 01/M03 A3012 RMK A01 T00131026  RH  075%=      5-min Rain = 0
KAI1 140656Z 36009KT 01/M03 A3012 RMK A01 T00131026  RH  075%=      5-min Rain = 0
KAI1 140657Z 36009KT 01/M03 A3012 RMK A01 T00141025  RH  075%=      5-min Rain = 0
KAI1 140658Z 00010KT 01/M03 A3012 RMK A01 T00131026  RH  075%=      5-min Rain = 0
KAI1 140659Z 00009KT 01/M03 A3012 RMK A01 T00141026  RH  075%=      5-min Rain = 0
KAI1 140700Z 36009KT 01/M03 A3012 RMK A01 T00141025  RH  075%=      5-min Rain = 0
KAI1 140701Z 36010KT 02/M03 A3012 RMK A01 T00151025  RH  075%=      5-min Rain = 0
KAI1 140702Z 36009KT 02/M03 A3012 RMK A01 T00151025  RH  075%=      5-min Rain = 0
KAI1 140703Z 36010KT 01/M03 A3012 RMK A01 T00141026  RH  075%=      5-min Rain = 0
KAI1 140704Z 36010KT 01/M03 A3012 RMK A01 T00141026  RH  075%=      5-min Rain = 0
KAI1 140705Z 36010KT 02/M03 A3012 RMK A01 T00151026  RH  075%=      5-min Rain = 0
KAI1 140706Z 00010KT 02/M03 A3012 RMK A01 T00151025  RH  074%=      5-min Rain = 0
KAI1 140707Z 36010KT 02/M03 A3013 RMK A01 T00151026  RH  074%=      5-min Rain = 0
KAI1 140708Z 36011KT 02/M03 A3013 RMK A01 T00161026  RH  074%=      5-min Rain = 0
KAI1 140709Z 36010KT 02/M03 A3013 RMK A01 T00161026  RH  074%=      5-min Rain = 0
KAI1 140710Z 36011KT 02/M03 A3013 RMK A01 T00171026  RH  073%=      5-min Rain = 0
KAI1 140711Z 36011KT 02/M03 A3013 RMK A01 T00171026  RH  073%=      5-min Rain = 0
KAI1 140712Z 36011KT 02/M03 A3013 RMK A01 T00171026  RH  073%=      5-min Rain = 0
KAI1 140713Z 00010KT 02/M03 A3013 RMK A01 T00171027  RH  073%=      5-min Rain = 0
KAI1 140714Z 00010KT 02/M03 A3013 RMK A01 T00171027  RH  073%=      5-min Rain = 0
KAI1 140715Z 00010KT 02/M03 A3013 RMK A01 T00171027  RH  073%=      5-min Rain = 0
KAI1 140716Z 00010KT 02/M03 A3013 RMK A01 T00171027  RH  072%=      5-min Rain = 0
KAI1 140717Z 00010KT 02/M03 A3013 RMK A01 T00171027  RH  072%=      5-min Rain = 0
KAI1 140718Z 00010KT 02/M03 A3013 RMK A01 T00171027  RH  072%=      5-min Rain = 0
KAI1 140719Z 00010KT 02/M03 A3013 RMK A01 T00181028  RH  072%=      5-min Rain = 0
KAI1 140720Z 00011KT 02/M03 A3013 RMK A01 T00171028  RH  072%=      5-min Rain = 0
KAI1 140721Z 00011KT 02/M03 A3013 RMK A01 T00161028  RH  072%=      5-min Rain = 0
KAI1 140722Z 00011KT 02/M03 A3013 RMK A01 T00171028  RH  072%=      5-min Rain = 0
KAI1 140723Z 00011KT 02/M03 A3013 RMK A01 T00171028  RH  072%=      5-min Rain = 0
KAI1 140724Z 00011KT 02/M03 A3013 RMK A01 T00181029  RH  071%=      5-min Rain = 0
KAI1 140725Z 00011KT 02/M03 A3013 RMK A01 T00181029  RH  071%=      5-min Rain = 0
KAI1 140726Z 00011KT 02/M03 A3013 RMK A01 T00181029  RH  071%=      5-min Rain = 0
KAI1 140727Z 00011KT 02/M03 A3014 RMK A01 T00181029  RH  071%=      5-min Rain = 0
KAI1 140728Z 00010KT 02/M03 A3014 RMK A01 T00191029  RH  070%=      5-min Rain = 0
KAI1 140729Z 00011KT 02/M03 A3014 RMK A01 T00181030  RH  070%=      5-min Rain = 0
KAI1 140730Z 00011KT 02/M03 A3014 RMK A01 T00191030  RH  070%=      5-min Rain = 0
KAI1 140731Z 01010KT 02/M03 A3014 RMK A01 T00181031  RH  070%=      5-min Rain = 0
KAI1 140732Z 01011KT 02/M03 A3014 RMK A01 T00181031  RH  070%=      5-min Rain = 0
KAI1 140733Z 01010KT 02/M03 A3014 RMK A01 T00181032  RH  070%=      5-min Rain = 0
KAI1 140734Z 01010KT 02/M03 A3014 RMK A01 T00181032  RH  070%=      5-min Rain = 0
KAI1 140735Z 01011KT 02/M03 A3014 RMK A01 T00181032  RH  069%=      5-min Rain = 0
KAI1 140736Z 01011KT 02/M03 A3014 RMK A01 T00181033  RH  069%=      5-min Rain = 0
KAI1 140737Z 00010KT 02/M03 A3014 RMK A01 T00181033  RH  069%=      5-min Rain = 0
KAI1 140738Z 01011KT 02/M03 A3014 RMK A01 T00181033  RH  069%=      5-min Rain = 0
KAI1 140739Z 01011KT 02/M03 A3014 RMK A01 T00171034  RH  069%=      5-min Rain = 0
KAI1 140740Z 00011KT 02/M03 A3014 RMK A01 T00171034  RH  069%=      5-min Rain = 0
KAI1 140741Z 01010KT 02/M03 A3014 RMK A01 T00171034  RH  069%=      5-min Rain = 0
KAI1 140742Z 01011KT 02/M04 A3014 RMK A01 T00171035  RH  069%=      5-min Rain = 0
KAI1 140743Z 00011KT 02/M04 A3014 RMK A01 T00161035  RH  069%=      5-min Rain = 0
KAI1 140744Z 01011KT 02/M04 A3014 RMK A01 T00161035  RH  069%=      5-min Rain = 0
KAI1 140745Z 01010KT 02/M04 A3014 RMK A01 T00161035  RH  069%=      5-min Rain = 0
KAI1 140746Z 01010KT 02/M04 A3014 RMK A01 T00151035  RH  069%=      5-min Rain = 0
KAI1 140747Z 01012KT 02/M04 A3014 RMK A01 T00151036  RH  069%=      5-min Rain = 0
KAI1 140748Z 01011KT 02/M04 A3015 RMK A01 T00151036  RH  069%=      5-min Rain = 0
KAI1 140749Z 01010KT 02/M04 A3015 RMK A01 T00151037  RH  069%=      5-min Rain = 0
KAI1 140750Z 01011KT 02/M04 A3015 RMK A01 T00151037  RH  069%=      5-min Rain = 0
KAI1 140751Z 01011KT 01/M04 A3015 RMK A01 T00141037  RH  069%=      5-min Rain = 0
KAI1 140752Z 01011KT 01/M04 A3015 RMK A01 T00141038  RH  069%=      5-min Rain = 0
KAI1 140753Z 01011KT 01/M04 A3015 RMK A01 T00141038  RH  069%=      5-min Rain = 0
KAI1 140754Z 01011KT 01/M04 A3015 RMK A01 T00131038  RH  069%=      5-min Rain = 0
KAI1 140755Z 01011KT 01/M04 A3015 RMK A01 T00131039  RH  069%=      5-min Rain = 0
KAI1 140756Z 00011KT 01/M04 A3015 RMK A01 T00121039  RH  069%=      5-min Rain = 0
KAI1 140757Z 01011KT 01/M04 A3015 RMK A01 T00121039  RH  069%=      5-min Rain = 0
KAI1 140758Z 01011KT 01/M04 A3015 RMK A01 T00121039  RH  069%=      5-min Rain = 0
KAI1 140759Z 01011KT 01/M04 A3015 RMK A01 T00121039  RH  069%=      5-min Rain = 0
KAI1 140800Z 01011KT 01/M04 A3015 RMK A01 T00121039  RH  069%=      5-min Rain = 0
KAI1 140801Z 01011KT 01/M04 A3015 RMK A01 T00121039  RH  069%=      5-min Rain = 0
KAI1 140802Z 01011KT 01/M04 A3015 RMK A01 T00121040  RH  068%=      5-min Rain = 0
KAI1 140803Z 01011KT 01/M04 A3015 RMK A01 T00121040  RH  068%=      5-min Rain = 0
KAI1 140804Z 01011KT 01/M04 A3015 RMK A01 T00111041  RH  068%=      5-min Rain = 0
KAI1 140805Z 01011KT 01/M04 A3015 RMK A01 T00111041  RH  069%=      5-min Rain = 0
KAI1 140806Z 01010KT 01/M04 A3015 RMK A01 T00111041  RH  069%=      5-min Rain = 0
KAI1 140807Z 01011KT 01/M04 A3015 RMK A01 T00101041  RH  069%=      5-min Rain = 0
KAI1 140808Z 01011KT 01/M04 A3016 RMK A01 T00111041  RH  069%=      5-min Rain = 0
KAI1 140809Z 01011KT 01/M04 A3016 RMK A01 T00111041  RH  068%=      5-min Rain = 0
KAI1 140810Z 01011KT 01/M04 A3016 RMK A01 T00101041  RH  068%=      5-min Rain = 0
KAI1 140811Z 01011KT 01/M04 A3016 RMK A01 T00111041  RH  068%=      5-min Rain = 0
KAI1 140812Z 01011KT 01/M04 A3016 RMK A01 T00101041  RH  068%=      5-min Rain = 0
KAI1 140813Z 01011KT 01/M04 A3016 RMK A01 T00101042  RH  068%=      5-min Rain = 0
KAI1 140814Z 01010KT 01/M04 A3016 RMK A01 T00101042  RH  068%=      5-min Rain = 0
KAI1 140815Z 01010KT 01/M04 A3016 RMK A01 T00111042  RH  068%=      5-min Rain = 0
KAI1 140816Z 01010KT 01/M04 A3016 RMK A01 T00101042  RH  068%=      5-min Rain = 0
KAI1 140817Z 01010KT 01/M04 A3016 RMK A01 T00111042  RH  068%=      5-min Rain = 0
KAI1 140818Z 01009KT 01/M04 A3016 RMK A01 T00111042  RH  068%=      5-min Rain = 0
KAI1 140819Z 01010KT 01/M04 A3016 RMK A01 T00111042  RH  068%=      5-min Rain = 0
KAI1 140820Z 01010KT 01/M04 A3016 RMK A01 T00111042  RH  068%=      5-min Rain = 0
KAI1 140821Z 01009KT 01/M04 A3016 RMK A01 T00111042  RH  068%=      5-min Rain = 0
KAI1 140822Z 01009KT 01/M04 A3016 RMK A01 T00111043  RH  068%=      5-min Rain = 0
KAI1 140823Z 01010KT 01/M04 A3016 RMK A01 T00111043  RH  068%=      5-min Rain = 0
KAI1 140824Z 01009KT 01/M04 A3016 RMK A01 T00111043  RH  068%=      5-min Rain = 0
KAI1 140825Z 01010KT 01/M04 A3016 RMK A01 T00101043  RH  068%=      5-min Rain = 0
KAI1 140826Z 01009KT 01/M04 A3016 RMK A01 T00101043  RH  068%=      5-min Rain = 0
KAI1 140827Z 01009KT 01/M04 A3016 RMK A01 T00101043  RH  068%=      5-min Rain = 0
KAI1 140828Z 01009KT 01/M04 A3016 RMK A01 T00091043  RH  068%=      5-min Rain = 0
KAI1 140829Z 01009KT 01/M04 A3016 RMK A01 T00091043  RH  068%=      5-min Rain = 0
KAI1 140830Z 01009KT 01/M04 A3016 RMK A01 T00081044  RH  068%=      5-min Rain = 0
KAI1 140831Z 01010KT 01/M04 A3016 RMK A01 T00081043  RH  068%=      5-min Rain = 0
KAI1 140832Z 01010KT 01/M04 A3016 RMK A01 T00081043  RH  068%=      5-min Rain = 0
KAI1 140833Z 01010KT 01/M04 A3016 RMK A01 T00081043  RH  068%=      5-min Rain = 0
KAI1 140834Z 01009KT 01/M04 A3016 RMK A01 T00091043  RH  068%=      5-min Rain = 0
KAI1 140835Z 01010KT 01/M04 A3016 RMK A01 T00091043  RH  068%=      5-min Rain = 0
KAI1 140836Z 01009KT 01/M04 A3016 RMK A01 T00091043  RH  068%=      5-min Rain = 0
KAI1 140837Z 01009KT 01/M04 A3016 RMK A01 T00091043  RH  068%=      5-min Rain = 0
KAI1 140838Z 01010KT 01/M04 A3017 RMK A01 T00091043  RH  068%=      5-min Rain = 0
KAI1 140839Z 01010KT 01/M04 A3017 RMK A01 T00091044  RH  068%=      5-min Rain = 0
KAI1 140840Z 01010KT 01/M04 A3017 RMK A01 T00091043  RH  068%=      5-min Rain = 0
KAI1 140841Z 01010KT 01/M04 A3017 RMK A01 T00091043  RH  068%=      5-min Rain = 0
KAI1 140842Z 01009KT 01/M04 A3017 RMK A01 T00091043  RH  068%=      5-min Rain = 0
KAI1 140843Z 01010KT 01/M04 A3017 RMK A01 T00091043  RH  068%=      5-min Rain = 0
KAI1 140844Z 01010KT 01/M04 A3017 RMK A01 T00091043  RH  068%=      5-min Rain = 0
KAI1 140845Z 01011KT 01/M04 A3017 RMK A01 T00091043  RH  068%=      5-min Rain = 0
KAI1 140846Z 01011KT 01/M04 A3017 RMK A01 T00101043  RH  068%=      5-min Rain = 0
KAI1 140847Z 01010KT 01/M04 A3017 RMK A01 T00101042  RH  068%=      5-min Rain = 0
KAI1 140848Z 02011KT 01/M04 A3017 RMK A01 T00101043  RH  068%=      5-min Rain = 0
KAI1 140849Z 01010KT 01/M04 A3017 RMK A01 T00101042  RH  068%=      5-min Rain = 0
KAI1 140850Z 01011KT 01/M04 A3017 RMK A01 T00101042  RH  068%=      5-min Rain = 0
KAI1 140851Z 01011KT 01/M04 A3017 RMK A01 T00101043  RH  068%=      5-min Rain = 0
KAI1 140852Z 01010KT 01/M04 A3017 RMK A01 T00101043  RH  068%=      5-min Rain = 0
KAI1 140853Z 01011KT 01/M04 A3017 RMK A01 T00101043  RH  068%=      5-min Rain = 0
KAI1 140854Z 01010KT 01/M04 A3017 RMK A01 T00111043  RH  068%=      5-min Rain = 0
KAI1 140855Z 01011KT 01/M04 A3017 RMK A01 T00111042  RH  067%=      5-min Rain = 0
KAI1 140856Z 01010KT 01/M04 A3017 RMK A01 T00111042  RH  067%=      5-min Rain = 0
KAI1 140857Z 01010KT 01/M04 A3017 RMK A01 T00111042  RH  068%=      5-min Rain = 0
KAI1 140858Z 01010KT 01/M04 A3017 RMK A01 T00111042  RH  068%=      5-min Rain = 0
KAI1 140859Z 01010KT 01/M04 A3017 RMK A01 T00111042  RH  068%=      5-min Rain = 0
KAI1 140900Z 01010KT 01/M04 A3018 RMK A01 T00111042  RH  068%=      5-min Rain = 0
KAI1 140901Z 02010KT 01/M04 A3018 RMK A01 T00111042  RH  068%=      5-min Rain = 0
KAI1 140902Z 02010KT 01/M04 A3018 RMK A01 T00111042  RH  068%=      5-min Rain = 0
KAI1 140903Z 01010KT 01/M04 A3018 RMK A01 T00111042  RH  067%=      5-min Rain = 0
KAI1 140904Z 02011KT 01/M04 A3018 RMK A01 T00121042  RH  067%=      5-min Rain = 0
KAI1 140905Z 02010KT 01/M04 A3018 RMK A01 T00121042  RH  067%=      5-min Rain = 0
KAI1 140906Z 02011KT 01/M04 A3018 RMK A01 T00121042  RH  067%=      5-min Rain = 0
KAI1 140907Z 02012KT 01/M04 A3018 RMK A01 T00131041  RH  067%=      5-min Rain = 0
KAI1 140908Z 01012KT 01/M04 A3018 RMK A01 T00141041  RH  067%=      5-min Rain = 0
KAI1 140909Z 02011KT 01/M04 A3018 RMK A01 T00141041  RH  067%=      5-min Rain = 0
KAI1 140910Z 02012KT 01/M04 A3018 RMK A01 T00141041  RH  067%=      5-min Rain = 0
KAI1 140911Z 02011KT 02/M04 A3018 RMK A01 T00151040  RH  066%=      5-min Rain = 0
KAI1 140912Z 02012KT 02/M04 A3018 RMK A01 T00161041  RH  066%=      5-min Rain = 0
KAI1 140913Z 02012KT 02/M04 A3018 RMK A01 T00161040  RH  066%=      5-min Rain = 0
KAI1 140914Z 02012KT 02/M04 A3018 RMK A01 T00161040  RH  066%=      5-min Rain = 0
KAI1 140915Z 02012KT 02/M04 A3018 RMK A01 T00161040  RH  066%=      5-min Rain = 0
KAI1 140916Z 01011KT 02/M04 A3018 RMK A01 T00161040  RH  066%=      5-min Rain = 0
KAI1 140917Z 02012KT 02/M04 A3018 RMK A01 T00161040  RH  066%=      5-min Rain = 0
KAI1 140918Z 02010KT 02/M04 A3018 RMK A01 T00161040  RH  066%=      5-min Rain = 0
KAI1 140919Z 02011KT 02/M04 A3018 RMK A01 T00161041  RH  066%=      5-min Rain = 0
KAI1 140920Z 02011KT 02/M04 A3018 RMK A01 T00151041  RH  066%=      5-min Rain = 0
KAI1 140921Z 02011KT 02/M04 A3019 RMK A01 T00151041  RH  066%=      5-min Rain = 0
KAI1 140922Z 02012KT 02/M04 A3019 RMK A01 T00151041  RH  066%=      5-min Rain = 0
KAI1 140923Z 02011KT 01/M04 A3019 RMK A01 T00141042  RH  066%=      5-min Rain = 0
KAI1 140924Z 02010KT 01/M04 A3019 RMK A01 T00141042  RH  066%=      5-min Rain = 0
KAI1 140925Z 02011KT 01/M04 A3019 RMK A01 T00131042  RH  067%=      5-min Rain = 0
KAI1 140926Z 03011KT 01/M04 A3019 RMK A01 T00131042  RH  067%=      5-min Rain = 0
KAI1 140927Z 02011KT 01/M04 A3019 RMK A01 T00131042  RH  067%=      5-min Rain = 0
KAI1 140928Z 02011KT 01/M04 A3019 RMK A01 T00131042  RH  067%=      5-min Rain = 0
KAI1 140929Z 02011KT 01/M04 A3019 RMK A01 T00121042  RH  067%=      5-min Rain = 0
KAI1 140930Z 02011KT 01/M04 A3019 RMK A01 T00121042  RH  067%=      5-min Rain = 0
KAI1 140931Z 02011KT 01/M04 A3019 RMK A01 T00111042  RH  067%=      5-min Rain = 0
KAI1 140932Z 02010KT 01/M04 A3019 RMK A01 T00111042  RH  068%=      5-min Rain = 0
KAI1 140933Z 03011KT 01/M04 A3019 RMK A01 T00101043  RH  068%=      5-min Rain = 0
KAI1 140934Z 03010KT 01/M04 A3019 RMK A01 T00101042  RH  068%=      5-min Rain = 0
KAI1 140935Z 03011KT 01/M04 A3019 RMK A01 T00101042  RH  068%=      5-min Rain = 0
KAI1 140936Z 03011KT 01/M04 A3019 RMK A01 T00101042  RH  068%=      5-min Rain = 0
KAI1 140937Z 03010KT 01/M04 A3019 RMK A01 T00101042  RH  068%=      5-min Rain = 0
KAI1 140938Z 02010KT 01/M04 A3019 RMK A01 T00111042  RH  068%=      5-min Rain = 0
KAI1 140939Z 03010KT 01/M04 A3019 RMK A01 T00101042  RH  068%=      5-min Rain = 0
KAI1 140940Z 03011KT 01/M04 A3019 RMK A01 T00111042  RH  068%=      5-min Rain = 0
KAI1 140941Z 03011KT 01/M04 A3019 RMK A01 T00111042  RH  068%=      5-min Rain = 0
KAI1 140942Z 03010KT 01/M04 A3019 RMK A01 T00111042  RH  068%=      5-min Rain = 0
KAI1 140943Z 03010KT 01/M04 A3019 RMK A01 T00111041  RH  068%=      5-min Rain = 0
KAI1 140944Z 03010KT 01/M04 A3019 RMK A01 T00111041  RH  068%=      5-min Rain = 0
KAI1 140945Z 03011KT 01/M04 A3019 RMK A01 T00111041  RH  068%=      5-min Rain = 0
KAI1 140946Z 03010KT 01/M04 A3019 RMK A01 T00111041  RH  068%=      5-min Rain = 0
KAI1 140947Z 03010KT 01/M04 A3019 RMK A01 T00121040  RH  068%=      5-min Rain = 0
KAI1 140948Z 03010KT 01/M04 A3019 RMK A01 T00121040  RH  068%=      5-min Rain = 0
KAI1 140949Z 03011KT 01/M04 A3019 RMK A01 T00131040  RH  068%=      5-min Rain = 0
KAI1 140950Z 02011KT 01/M04 A3019 RMK A01 T00141039  RH  068%=      5-min Rain = 0
KAI1 140951Z 03011KT 01/M04 A3019 RMK A01 T00141040  RH  067%=      5-min Rain = 0
KAI1 140952Z 02011KT 01/M04 A3019 RMK A01 T00141040  RH  067%=      5-min Rain = 0
KAI1 140953Z 02010KT 01/M04 A3019 RMK A01 T00141040  RH  067%=      5-min Rain = 0
KAI1 140954Z 02011KT 01/M04 A3019 RMK A01 T00141040  RH  067%=      5-min Rain = 0
KAI1 140955Z 02010KT 01/M04 A302 RMK A01 T00141040  RH  067%=      5-min Rain = 0
KAI1 140956Z 02011KT 01/M04 A302 RMK A01 T00141040  RH  067%=      5-min Rain = 0
KAI1 140957Z 02011KT 01/M04 A302 RMK A01 T00141040  RH  067%=      5-min Rain = 0
KAI1 140958Z 02010KT 01/M04 A302 RMK A01 T00141040  RH  067%=      5-min Rain = 0
KAI1 140959Z 02011KT 01/M04 A302 RMK A01 T00141040  RH  067%=      5-min Rain = 0
KAI1 141000Z 02010KT 01/M04 A302 RMK A01 T00141040  RH  067%=      5-min Rain = 0
KAI1 141001Z 02010KT 01/M04 A302 RMK A01 T00141040  RH  067%=      5-min Rain = 0
KAI1 141002Z 02010KT 01/M04 A302 RMK A01 T00131040  RH  068%=      5-min Rain = 0
KAI1 141003Z 02011KT 01/M04 A302 RMK A01 T00131040  RH  068%=      5-min Rain = 0
KAI1 141004Z 02011KT 01/M04 A302 RMK A01 T00131040  RH  068%=      5-min Rain = 0
KAI1 141005Z 02010KT 01/M04 A302 RMK A01 T00131040  RH  068%=      5-min Rain = 0
KAI1 141006Z 02011KT 01/M04 A302 RMK A01 T00131040  RH  067%=      5-min Rain = 0
KAI1 141007Z 02010KT 01/M04 A302 RMK A01 T00131040  RH  068%=      5-min Rain = 0
KAI1 141008Z 02012KT 01/M04 A302 RMK A01 T00131040  RH  068%=      5-min Rain = 0
KAI1 141009Z 03010KT 01/M04 A302 RMK A01 T00131040  RH  068%=      5-min Rain = 0
KAI1 141010Z 03011KT 01/M04 A302 RMK A01 T00131040  RH  067%=      5-min Rain = 0
KAI1 141011Z 03012KT 01/M04 A302 RMK A01 T00141040  RH  067%=      5-min Rain = 0
KAI1 141012Z 02011KT 01/M04 A302 RMK A01 T00141040  RH  067%=      5-min Rain = 0
KAI1 141013Z 02011KT 01/M04 A302 RMK A01 T00141040  RH  067%=      5-min Rain = 0
KAI1 141014Z 02012KT 01/M04 A302 RMK A01 T00141040  RH  067%=      5-min Rain = 0
KAI1 141015Z 02011KT 01/M04 A302 RMK A01 T00141040  RH  067%=      5-min Rain = 0
KAI1 141016Z 02011KT 01/M04 A302 RMK A01 T00141040  RH  067%=      5-min Rain = 0
KAI1 141017Z 02011KT 02/M04 A302 RMK A01 T00151040  RH  067%=      5-min Rain = 0
KAI1 141018Z 02012KT 01/M04 A302 RMK A01 T00141040  RH  067%=      5-min Rain = 0
KAI1 141019Z 02011KT 01/M04 A302 RMK A01 T00141040  RH  067%=      5-min Rain = 0
KAI1 141020Z 02011KT 01/M04 A302 RMK A01 T00141040  RH  067%=      5-min Rain = 0
KAI1 141021Z 02011KT 01/M04 A302 RMK A01 T00141040  RH  067%=      5-min Rain = 0
KAI1 141022Z 02010KT 01/M04 A302 RMK A01 T00141040  RH  067%=      5-min Rain = 0
KAI1 141023Z 02010KT 01/M04 A302 RMK A01 T00131040  RH  068%=      5-min Rain = 0
KAI1 141024Z 02010KT 01/M04 A302 RMK A01 T00131040  RH  068%=      5-min Rain = 0
KAI1 141025Z 02008KT 01/M04 A302 RMK A01 T00121041  RH  068%=      5-min Rain = 0
KAI1 141026Z 02009KT 01/M04 A3021 RMK A01 T00121041  RH  068%=      5-min Rain = 0
KAI1 141027Z 02009KT 01/M04 A3021 RMK A01 T00111041  RH  068%=      5-min Rain = 0
KAI1 141028Z 02009KT 01/M04 A3021 RMK A01 T00111041  RH  068%=      5-min Rain = 0
KAI1 141029Z 02008KT 01/M04 A3021 RMK A01 T00111041  RH  069%=      5-min Rain = 0
KAI1 141030Z 02009KT 01/M04 A3021 RMK A01 T00101041  RH  069%=      5-min Rain = 0
KAI1 141031Z 02009KT 01/M04 A3021 RMK A01 T00101041  RH  069%=      5-min Rain = 0
KAI1 141032Z 02009KT 01/M04 A3021 RMK A01 T00101041  RH  069%=      5-min Rain = 0
KAI1 141033Z 02008KT 01/M04 A3021 RMK A01 T00101041  RH  069%=      5-min Rain = 0
KAI1 141034Z 02009KT 01/M04 A3021 RMK A01 T00101040  RH  069%=      5-min Rain = 0
KAI1 141035Z 02008KT 01/M04 A3021 RMK A01 T00101041  RH  069%=      5-min Rain = 0
KAI1 141036Z 02008KT 01/M04 A3021 RMK A01 T00101041  RH  069%=      5-min Rain = 0
KAI1 141037Z 02009KT 01/M04 A3021 RMK A01 T00091042  RH  069%=      5-min Rain = 0
KAI1 141038Z 02008KT 01/M04 A3021 RMK A01 T00081041  RH  069%=      5-min Rain = 0
KAI1 141039Z 02009KT 01/M04 A3021 RMK A01 T00071042  RH  070%=      5-min Rain = 0
KAI1 141040Z 02008KT 01/M04 A3021 RMK A01 T00071042  RH  070%=      5-min Rain = 0
KAI1 141041Z 03009KT 01/M04 A3021 RMK A01 T00061042  RH  070%=      5-min Rain = 0
KAI1 141042Z 03009KT 01/M04 A3021 RMK A01 T00061041  RH  070%=      5-min Rain = 0
KAI1 141043Z 03008KT 01/M04 A3022 RMK A01 T00061042  RH  070%=      5-min Rain = 0
KAI1 141044Z 03008KT 01/M04 A3022 RMK A01 T00061041  RH  070%=      5-min Rain = 0
KAI1 141045Z 03008KT 01/M04 A3022 RMK A01 T00061042  RH  070%=      5-min Rain = 0
KAI1 141046Z 03009KT 01/M04 A3022 RMK A01 T00061041  RH  070%=      5-min Rain = 0
KAI1 141047Z 03008KT 01/M04 A3022 RMK A01 T00061042  RH  070%=      5-min Rain = 0
KAI1 141048Z 02008KT 01/M04 A3022 RMK A01 T00051042  RH  071%=      5-min Rain = 0
KAI1 141049Z 03008KT 01/M04 A3022 RMK A01 T00051042  RH  071%=      5-min Rain = 0
KAI1 141050Z 03007KT 00/M04 A3022 RMK A01 T00041042  RH  071%=      5-min Rain = 0
KAI1 141051Z 03007KT 00/M04 A3022 RMK A01 T00031043  RH  071%=      5-min Rain = 0
KAI1 141052Z 03006KT 00/M04 A3022 RMK A01 T00031043  RH  071%=      5-min Rain = 0
KAI1 141053Z 03007KT 00/M04 A3022 RMK A01 T00021043  RH  072%=      5-min Rain = 0
KAI1 141054Z 03007KT 00/M04 A3022 RMK A01 T00011044  RH  072%=      5-min Rain = 0
KAI1 141055Z 03007KT 00/04 A3022 RMK A01 T00000-44  RH  072%=      5-min Rain = 0
KAI1 141056Z 02007KT M00/M04 A3022 RMK A01 T10011044  RH  072%=      5-min Rain = 0
KAI1 141057Z 03006KT M00/M05 A3022 RMK A01 T10011045  RH  073%=      5-min Rain = 0
KAI1 141058Z 02006KT M00/M05 A3022 RMK A01 T10021045  RH  073%=      5-min Rain = 0
KAI1 141059Z 02006KT M00/M05 A3022 RMK A01 T10021045  RH  073%=      5-min Rain = 0
KAI1 141100Z 02006KT M00/M05 A3022 RMK A01 T10031045  RH  073%=      5-min Rain = 0
KAI1 141101Z 02006KT M00/M05 A3022 RMK A01 T10031045  RH  074%=      5-min Rain = 0
KAI1 141102Z 02006KT M00/M05 A3022 RMK A01 T10041045  RH  074%=      5-min Rain = 0
KAI1 141103Z 02007KT M00/M05 A3022 RMK A01 T10041045  RH  074%=      5-min Rain = 0
KAI1 141104Z 01007KT M00/M05 A3023 RMK A01 T10041045  RH  074%=      5-min Rain = 0
KAI1 141105Z 02007KT M01/M04 A3023 RMK A01 T10051044  RH  074%=      5-min Rain = 0
KAI1 141106Z 01006KT M01/M04 A3023 RMK A01 T10051044  RH  075%=      5-min Rain = 0
KAI1 141107Z 01006KT M01/M04 A3023 RMK A01 T10051044  RH  075%=      5-min Rain = 0
KAI1 141108Z 01006KT M01/M04 A3023 RMK A01 T10061044  RH  075%=      5-min Rain = 0
KAI1 141109Z 02007KT M01/M04 A3023 RMK A01 T10061044  RH  076%=      5-min Rain = 0
KAI1 141110Z 02007KT M01/M04 A3023 RMK A01 T10061044  RH  076%=      5-min Rain = 0
KAI1 141111Z 02007KT M01/M04 A3023 RMK A01 T10061043  RH  076%=      5-min Rain = 0
KAI1 141112Z 01007KT M01/M04 A3023 RMK A01 T10061043  RH  076%=      5-min Rain = 0
KAI1 141113Z 02007KT M01/M04 A3023 RMK A01 T10061043  RH  076%=      5-min Rain = 0
KAI1 141114Z 02007KT M01/M04 A3023 RMK A01 T10061043  RH  076%=      5-min Rain = 0
KAI1 141115Z 02007KT M01/M04 A3023 RMK A01 T10061043  RH  076%=      5-min Rain = 0
KAI1 141116Z 02007KT M01/M04 A3023 RMK A01 T10061043  RH  076%=      5-min Rain = 0
KAI1 141117Z 02007KT M01/M04 A3023 RMK A01 T10071043  RH  076%=      5-min Rain = 0
KAI1 141118Z 02007KT M01/M04 A3023 RMK A01 T10061043  RH  076%=      5-min Rain = 0
KAI1 141119Z 02007KT M01/M04 A3023 RMK A01 T10061043  RH  076%=      5-min Rain = 0
KAI1 141120Z 02008KT M01/M04 A3023 RMK A01 T10061043  RH  076%=      5-min Rain = 0
KAI1 141121Z 02007KT M01/M04 A3023 RMK A01 T10061043  RH  076%=      5-min Rain = 0
KAI1 141122Z 02007KT M01/M04 A3023 RMK A01 T10061043  RH  076%=      5-min Rain = 0
KAI1 141123Z 01007KT M01/M04 A3023 RMK A01 T10061043  RH  076%=      5-min Rain = 0
KAI1 141124Z 01008KT M01/M04 A3023 RMK A01 T10061043  RH  076%=      5-min Rain = 0
KAI1 141125Z 01008KT M01/M04 A3023 RMK A01 T10061043  RH  076%=      5-min Rain = 0
KAI1 141126Z 01008KT M01/M04 A3023 RMK A01 T10071044  RH  076%=      5-min Rain = 0
KAI1 141127Z 01008KT M01/M04 A3023 RMK A01 T10071044  RH  076%=      5-min Rain = 0
KAI1 141128Z 02008KT M01/M04 A3023 RMK A01 T10081044  RH  077%=      5-min Rain = 0
KAI1 141129Z 01008KT M01/M04 A3023 RMK A01 T10081044  RH  077%=      5-min Rain = 0
KAI1 141130Z 01008KT M01/M04 A3023 RMK A01 T10081044  RH  077%=      5-min Rain = 0
KAI1 141131Z 01008KT M01/M04 A3023 RMK A01 T10091044  RH  077%=      5-min Rain = 0
KAI1 141132Z 02009KT M01/M04 A3023 RMK A01 T10091044  RH  077%=      5-min Rain = 0
KAI1 141133Z 02008KT M01/M04 A3023 RMK A01 T10081043  RH  077%=      5-min Rain = 0
KAI1 141134Z 02009KT M01/M04 A3023 RMK A01 T10081043  RH  077%=      5-min Rain = 0
KAI1 141135Z 02009KT M01/M04 A3023 RMK A01 T10091043  RH  077%=      5-min Rain = 0
KAI1 141136Z 02009KT M01/M04 A3023 RMK A01 T10091044  RH  077%=      5-min Rain = 0
KAI1 141137Z 02009KT M01/M04 A3023 RMK A01 T10091043  RH  077%=      5-min Rain = 0
KAI1 141138Z 02009KT M01/M04 A3023 RMK A01 T10081043  RH  077%=      5-min Rain = 0
KAI1 141139Z 02009KT M01/M04 A3023 RMK A01 T10081043  RH  077%=      5-min Rain = 0
KAI1 141140Z 02009KT M01/M04 A3023 RMK A01 T10071043  RH  077%=      5-min Rain = 0
KAI1 141141Z 02009KT M01/M04 A3023 RMK A01 T10071043  RH  077%=      5-min Rain = 0
KAI1 141142Z 02008KT M01/M04 A3023 RMK A01 T10071043  RH  077%=      5-min Rain = 0
KAI1 141143Z 02009KT M01/M04 A3024 RMK A01 T10071042  RH  077%=      5-min Rain = 0
KAI1 141144Z 02009KT M01/M04 A3024 RMK A01 T10071042  RH  077%=      5-min Rain = 0
KAI1 141145Z 02008KT M01/M04 A3024 RMK A01 T10071043  RH  077%=      5-min Rain = 0
KAI1 141146Z 02009KT M01/M04 A3024 RMK A01 T10071042  RH  077%=      5-min Rain = 0
KAI1 141147Z 02009KT M01/M04 A3024 RMK A01 T10061042  RH  077%=      5-min Rain = 0
KAI1 141148Z 02009KT M01/M04 A3024 RMK A01 T10061042  RH  077%=      5-min Rain = 0
KAI1 141149Z 02009KT M01/M04 A3024 RMK A01 T10061042  RH  077%=      5-min Rain = 0
KAI1 141150Z 02009KT M01/M04 A3024 RMK A01 T10061042  RH  077%=      5-min Rain = 0
KAI1 141151Z 02009KT M01/M04 A3024 RMK A01 T10061042  RH  077%=      5-min Rain = 0
KAI1 141152Z 02008KT M01/M04 A3024 RMK A01 T10061042  RH  077%=      5-min Rain = 0
KAI1 141153Z 02008KT M01/M04 A3024 RMK A01 T10061042  RH  077%=      5-min Rain = 0
KAI1 141154Z 03008KT M01/M04 A3024 RMK A01 T10061042  RH  076%=      5-min Rain = 0
KAI1 141155Z 03008KT M01/M04 A3024 RMK A01 T10061042  RH  076%=      5-min Rain = 0
KAI1 141156Z 03008KT M01/M04 A3024 RMK A01 T10061042  RH  077%=      5-min Rain = 0
KAI1 141157Z 03007KT M01/M04 A3024 RMK A01 T10061043  RH  077%=      5-min Rain = 0
KAI1 141158Z 02007KT M01/M04 A3024 RMK A01 T10061042  RH  077%=      5-min Rain = 0
KAI1 141159Z 02007KT M01/M04 A3024 RMK A01 T10061042  RH  077%=      5-min Rain = 0
KAI1 141200Z 02007KT M01/M04 A3024 RMK A01 T10071042  RH  077%=      5-min Rain = 0
KAI1 141201Z 02007KT M01/M04 A3025 RMK A01 T10071042  RH  077%=      5-min Rain = 0
KAI1 141202Z 02007KT M01/M04 A3025 RMK A01 T10071043  RH  077%=      5-min Rain = 0
KAI1 141203Z 02007KT M01/M04 A3025 RMK A01 T10081043  RH  077%=      5-min Rain = 0
KAI1 141204Z 02007KT M01/M04 A3025 RMK A01 T10081042  RH  077%=      5-min Rain = 0
KAI1 141205Z 02007KT M01/M04 A3025 RMK A01 T10081043  RH  078%=      5-min Rain = 0
KAI1 141206Z 02007KT M01/M04 A3025 RMK A01 T10091043  RH  078%=      5-min Rain = 0
KAI1 141207Z 02007KT M01/M04 A3025 RMK A01 T10091042  RH  078%=      5-min Rain = 0
KAI1 141208Z 02007KT M01/M04 A3025 RMK A01 T10091042  RH  078%=      5-min Rain = 0
KAI1 141209Z 02008KT M01/M04 A3025 RMK A01 T10091042  RH  078%=      5-min Rain = 0
KAI1 141210Z 01008KT M01/M04 A3025 RMK A01 T10101043  RH  078%=      5-min Rain = 0
KAI1 141211Z 01008KT M01/M04 A3026 RMK A01 T10101042  RH  079%=      5-min Rain = 0
KAI1 141212Z 02008KT M01/M04 A3026 RMK A01 T10101041  RH  079%=      5-min Rain = 0
KAI1 141213Z 02008KT M01/M04 A3026 RMK A01 T10091041  RH  079%=      5-min Rain = 0
KAI1 141214Z 02008KT M01/M04 A3026 RMK A01 T10091040  RH  079%=      5-min Rain = 0
KAI1 141215Z 01008KT M01/M04 A3026 RMK A01 T10091040  RH  079%=      5-min Rain = 0
KAI1 141216Z 01008KT M01/M04 A3026 RMK A01 T10091040  RH  079%=      5-min Rain = 0
KAI1 141217Z 01008KT M01/M04 A3026 RMK A01 T10091040  RH  079%=      5-min Rain = 0
KAI1 141218Z 01009KT M01/M04 A3026 RMK A01 T10091040  RH  079%=      5-min Rain = 0
KAI1 141219Z 01010KT M01/M04 A3026 RMK A01 T10091040  RH  079%=      5-min Rain = 0
KAI1 141220Z 01009KT M01/M04 A3026 RMK A01 T10081039  RH  079%=      5-min Rain = 0
KAI1 141221Z 01009KT M01/M04 A3026 RMK A01 T10081039  RH  079%=      5-min Rain = 0
KAI1 141222Z 02009KT M01/M04 A3026 RMK A01 T10071039  RH  079%=      5-min Rain = 0
KAI1 141223Z 02009KT M01/M04 A3026 RMK A01 T10071040  RH  079%=      5-min Rain = 0
KAI1 141224Z 02009KT M01/M04 A3026 RMK A01 T10071040  RH  079%=      5-min Rain = 0
KAI1 141225Z 01008KT M01/M04 A3026 RMK A01 T10071040  RH  079%=      5-min Rain = 0
KAI1 141226Z 02009KT M01/M04 A3026 RMK A01 T10081041  RH  079%=      5-min Rain = 0
KAI1 141227Z 01009KT M01/M04 A3026 RMK A01 T10091041  RH  079%=      5-min Rain = 0
KAI1 141228Z 01009KT M01/M04 A3026 RMK A01 T10101042  RH  079%=      5-min Rain = 0
KAI1 141229Z 01009KT M01/M04 A3026 RMK A01 T10111042  RH  079%=      5-min Rain = 0
KAI1 141230Z 01009KT M01/M04 A3026 RMK A01 T10111042  RH  079%=      5-min Rain = 0
KAI1 141231Z 02009KT M01/M04 A3026 RMK A01 T10121042  RH  080%=      5-min Rain = 0
KAI1 141232Z 02009KT M01/M04 A3026 RMK A01 T10121042  RH  080%=      5-min Rain = 0
KAI1 141233Z 02009KT M01/M04 A3026 RMK A01 T10121042  RH  080%=      5-min Rain = 0
KAI1 141234Z 02009KT M01/M04 A3026 RMK A01 T10121042  RH  080%=      5-min Rain = 0
KAI1 141235Z 02009KT M01/M04 A3026 RMK A01 T10111041  RH  080%=      5-min Rain = 0
KAI1 141236Z 02009KT M01/M04 A3026 RMK A01 T10111041  RH  080%=      5-min Rain = 0
KAI1 141237Z 02010KT M01/M04 A3026 RMK A01 T10111040  RH  080%=      5-min Rain = 0
KAI1 141238Z 02010KT M01/M04 A3026 RMK A01 T10101040  RH  080%=      5-min Rain = 0
KAI1 141239Z 02009KT M01/M04 A3026 RMK A01 T10101039  RH  080%=      5-min Rain = 0
KAI1 141240Z 02010KT M01/M04 A3026 RMK A01 T10101039  RH  080%=      5-min Rain = 0
KAI1 141241Z 02009KT M01/M04 A3027 RMK A01 T10091039  RH  080%=      5-min Rain = 0
KAI1 141242Z 02010KT M01/M04 A3027 RMK A01 T10101039  RH  081%=      5-min Rain = 0
KAI1 141243Z 02010KT M01/M04 A3027 RMK A01 T10091039  RH  081%=      5-min Rain = 0
KAI1 141244Z 02009KT M01/M04 A3027 RMK A01 T10091038  RH  081%=      5-min Rain = 0
KAI1 141245Z 02010KT M01/M04 A3027 RMK A01 T10091038  RH  081%=      5-min Rain = 0
KAI1 141246Z 02010KT M01/M04 A3027 RMK A01 T10071037  RH  081%=      5-min Rain = 0
KAI1 141247Z 02009KT M01/M04 A3027 RMK A01 T10071037  RH  081%=      5-min Rain = 0
KAI1 141248Z 02009KT M01/M04 A3027 RMK A01 T10071037  RH  081%=      5-min Rain = 0
KAI1 141249Z 02010KT M01/M04 A3027 RMK A01 T10071036  RH  081%=      5-min Rain = 0
KAI1 141250Z 02009KT M01/M04 A3027 RMK A01 T10061035  RH  081%=      5-min Rain = 0
KAI1 141251Z 02009KT M01/M04 A3027 RMK A01 T10061036  RH  080%=      5-min Rain = 0
KAI1 141252Z 02009KT M01/M04 A3028 RMK A01 T10061035  RH  080%=      5-min Rain = 0
KAI1 141253Z 02010KT M01/M04 A3028 RMK A01 T10051035  RH  080%=      5-min Rain = 0
KAI1 141254Z 02010KT M01/M04 A3028 RMK A01 T10051035  RH  080%=      5-min Rain = 0
KAI1 141255Z 02009KT M00/M03 A3028 RMK A01 T10041034  RH  080%=      5-min Rain = 0
KAI1 141256Z 02010KT M00/M03 A3028 RMK A01 T10041034  RH  080%=      5-min Rain = 0
KAI1 141257Z 02010KT M00/M03 A3028 RMK A01 T10041034  RH  080%=      5-min Rain = 0
KAI1 141258Z 02009KT M00/M03 A3028 RMK A01 T10041033  RH  080%=      5-min Rain = 0
KAI1 141259Z 02010KT M00/M03 A3028 RMK A01 T10031033  RH  080%=      5-min Rain = 0
KAI1 141300Z 02009KT M00/M03 A3028 RMK A01 T10031034  RH  080%=      5-min Rain = 0
KAI1 141301Z 02009KT M00/M03 A3028 RMK A01 T10031034  RH  080%=      5-min Rain = 0
KAI1 141302Z 02009KT M00/M03 A3028 RMK A01 T10031034  RH  080%=      5-min Rain = 0
KAI1 141303Z 02009KT M00/M03 A3028 RMK A01 T10031033  RH  080%=      5-min Rain = 0
KAI1 141304Z 02009KT M00/M03 A3028 RMK A01 T10031033  RH  080%=      5-min Rain = 0
KAI1 141305Z 02009KT M00/M03 A3028 RMK A01 T10031033  RH  080%=      5-min Rain = 0
KAI1 141306Z 02009KT M00/M03 A3028 RMK A01 T10031034  RH  080%=      5-min Rain = 0
KAI1 141307Z 02009KT M00/M03 A3029 RMK A01 T10031034  RH  080%=      5-min Rain = 0
KAI1 141308Z 02010KT M00/M03 A3029 RMK A01 T10031034  RH  080%=      5-min Rain = 0
KAI1 141309Z 02010KT M00/M03 A3029 RMK A01 T10031034  RH  080%=      5-min Rain = 0
KAI1 141310Z 02009KT M00/M03 A3029 RMK A01 T10031034  RH  080%=      5-min Rain = 0
KAI1 141311Z 02009KT M00/M03 A3029 RMK A01 T10031034  RH  080%=      5-min Rain = 0
KAI1 141312Z 02009KT M00/M03 A3029 RMK A01 T10031034  RH  080%=      5-min Rain = 0
KAI1 141313Z 02009KT M00/M03 A3029 RMK A01 T10031034  RH  080%=      5-min Rain = 0
KAI1 141314Z 02010KT M00/M03 A3029 RMK A01 T10031034  RH  080%=      5-min Rain = 0
KAI1 141315Z 02010KT M00/M03 A3029 RMK A01 T10031034  RH  080%=      5-min Rain = 0
KAI1 141316Z 02010KT M00/M03 A303 RMK A01 T10031034  RH  080%=      5-min Rain = 0
KAI1 141317Z 01010KT M00/M03 A303 RMK A01 T10041034  RH  080%=      5-min Rain = 0
KAI1 141318Z 01010KT M00/M04 A303 RMK A01 T10041035  RH  080%=      5-min Rain = 0
KAI1 141319Z 02010KT M00/M03 A303 RMK A01 T10041034  RH  080%=      5-min Rain = 0
KAI1 141320Z 02010KT M00/M03 A303 RMK A01 T10041034  RH  080%=      5-min Rain = 0
KAI1 141321Z 02010KT M00/M04 A303 RMK A01 T10041035  RH  080%=      5-min Rain = 0
KAI1 141322Z 02010KT M00/M04 A303 RMK A01 T10041035  RH  080%=      5-min Rain = 0
KAI1 141323Z 02010KT M00/M03 A303 RMK A01 T10041034  RH  080%=      5-min Rain = 0
KAI1 141324Z 02010KT M00/M03 A303 RMK A01 T10041034  RH  080%=      5-min Rain = 0
KAI1 141325Z 02010KT M00/M03 A303 RMK A01 T10041034  RH  080%=      5-min Rain = 0
KAI1 141326Z 02010KT M00/M03 A303 RMK A01 T10031033  RH  080%=      5-min Rain = 0
KAI1 141327Z 02010KT M00/M03 A303 RMK A01 T10021033  RH  080%=      5-min Rain = 0
KAI1 141328Z 02010KT M00/M03 A303 RMK A01 T10021033  RH  080%=      5-min Rain = 0
KAI1 141329Z 02010KT M00/M03 A303 RMK A01 T10021033  RH  079%=      5-min Rain = 0
KAI1 141330Z 02009KT M00/M03 A3031 RMK A01 T10011033  RH  079%=      5-min Rain = 0
KAI1 141331Z 03009KT M00/M03 A3031 RMK A01 T10011033  RH  079%=      5-min Rain = 0
KAI1 141332Z 02010KT M00/M03 A3031 RMK A01 T10011033  RH  079%=      5-min Rain = 0
KAI1 141333Z 03010KT 00/03 A3031 RMK A01 T00-00-32  RH  079%=      5-min Rain = 0
KAI1 141334Z 03009KT 00/M03 A3031 RMK A01 T00011032  RH  079%=      5-min Rain = 0
KAI1 141335Z 03009KT 00/M03 A3031 RMK A01 T00011032  RH  078%=      5-min Rain = 0
KAI1 141336Z 03009KT 00/M03 A3031 RMK A01 T00021032  RH  078%=      5-min Rain = 0
KAI1 141337Z 03009KT 00/M03 A3031 RMK A01 T00021032  RH  078%=      5-min Rain = 0
KAI1 141338Z 03009KT 00/M03 A3031 RMK A01 T00031032  RH  078%=      5-min Rain = 0
KAI1 141339Z 03009KT 00/M03 A3031 RMK A01 T00031032  RH  078%=      5-min Rain = 0
KAI1 141340Z 03009KT 00/M03 A3031 RMK A01 T00031031  RH  078%=      5-min Rain = 0
KAI1 141341Z 03009KT 00/M03 A3031 RMK A01 T00031032  RH  077%=      5-min Rain = 0
KAI1 141342Z 03009KT 00/M03 A3031 RMK A01 T00041031  RH  077%=      5-min Rain = 0
KAI1 141343Z 03009KT 00/M03 A3031 RMK A01 T00041031  RH  077%=      5-min Rain = 0
KAI1 141344Z 03009KT 00/M03 A3031 RMK A01 T00041032  RH  077%=      5-min Rain = 0
KAI1 141345Z 03010KT 00/M03 A3031 RMK A01 T00041031  RH  077%=      5-min Rain = 0
KAI1 141346Z 03008KT 00/M03 A3031 RMK A01 T00041031  RH  077%=      5-min Rain = 0
KAI1 141347Z 03009KT 01/M03 A3031 RMK A01 T00051031  RH  077%=      5-min Rain = 0
KAI1 141348Z 03008KT 01/M03 A3031 RMK A01 T00051031  RH  077%=      5-min Rain = 0
KAI1 141349Z 03008KT 01/M03 A3031 RMK A01 T00051031  RH  077%=      5-min Rain = 0
KAI1 141350Z 03009KT 01/M03 A3032 RMK A01 T00051031  RH  077%=      5-min Rain = 0
KAI1 141351Z 03009KT 01/M03 A3032 RMK A01 T00051031  RH  077%=      5-min Rain = 0
KAI1 141352Z 03008KT 01/M03 A3032 RMK A01 T00061031  RH  077%=      5-min Rain = 0
KAI1 141353Z 02008KT 01/M03 A3032 RMK A01 T00061031  RH  077%=      5-min Rain = 0
KAI1 141354Z 03008KT 01/M03 A3032 RMK A01 T00061031  RH  077%=      5-min Rain = 0
KAI1 141355Z 03007KT 01/M03 A3032 RMK A01 T00061031  RH  077%=      5-min Rain = 0
KAI1 141356Z 03008KT 01/M03 A3032 RMK A01 T00061030  RH  077%=      5-min Rain = 0
KAI1 141357Z 03008KT 01/M03 A3032 RMK A01 T00071030  RH  076%=      5-min Rain = 0
KAI1 141358Z 03008KT 01/M03 A3032 RMK A01 T00071030  RH  077%=      5-min Rain = 0
KAI1 141359Z 03008KT 01/M03 A3032 RMK A01 T00071029  RH  076%=      5-min Rain = 0
KAI1 141400Z 03009KT 01/M03 A3033 RMK A01 T00081029  RH  076%=      5-min Rain = 0
KAI1 141401Z 03009KT 01/M03 A3033 RMK A01 T00091028  RH  076%=      5-min Rain = 0
KAI1 141402Z 03008KT 01/M03 A3033 RMK A01 T00091028  RH  076%=      5-min Rain = 0
KAI1 141403Z 03010KT 01/M03 A3033 RMK A01 T00101028  RH  076%=      5-min Rain = 0
KAI1 141404Z 03009KT 01/M03 A3033 RMK A01 T00111027  RH  076%=      5-min Rain = 0
KAI1 141405Z 03009KT 01/M03 A3033 RMK A01 T00111027  RH  076%=      5-min Rain = 0
KAI1 141406Z 03010KT 01/M03 A3033 RMK A01 T00121026  RH  075%=      5-min Rain = 0
KAI1 141407Z 03009KT 01/M03 A3033 RMK A01 T00131026  RH  075%=      5-min Rain = 0
KAI1 141408Z 03008KT 01/M03 A3033 RMK A01 T00131026  RH  075%=      5-min Rain = 0
KAI1 141409Z 03009KT 01/M03 A3033 RMK A01 T00141026  RH  075%=      5-min Rain = 0
KAI1 141410Z 03008KT 01/M03 A3033 RMK A01 T00141025  RH  075%=      5-min Rain = 0
KAI1 141411Z 03010KT 02/M03 A3033 RMK A01 T00151025  RH  075%=      5-min Rain = 0
KAI1 141412Z 03010KT 02/M03 A3033 RMK A01 T00161025  RH  074%=      5-min Rain = 0
KAI1 141413Z 04010KT 02/M03 A3033 RMK A01 T00161025  RH  074%=      5-min Rain = 0
KAI1 141414Z 03009KT 02/M02 A3033 RMK A01 T00171024  RH  074%=      5-min Rain = 0
KAI1 141415Z 04010KT 02/M02 A3034 RMK A01 T00171024  RH  074%=      5-min Rain = 0
KAI1 141416Z 04010KT 02/M02 A3034 RMK A01 T00171024  RH  074%=      5-min Rain = 0
KAI1 141417Z 04009KT 02/M02 A3034 RMK A01 T00181024  RH  074%=      5-min Rain = 0
KAI1 141418Z 04009KT 02/M02 A3034 RMK A01 T00181023  RH  074%=      5-min Rain = 0
KAI1 141419Z 04010KT 02/M02 A3034 RMK A01 T00191023  RH  074%=      5-min Rain = 0
KAI1 141420Z 04009KT 02/M02 A3034 RMK A01 T00201023  RH  073%=      5-min Rain = 0
KAI1 141421Z 04009KT 02/M02 A3034 RMK A01 T00201023  RH  073%=      5-min Rain = 0
KAI1 141422Z 04008KT 02/M02 A3034 RMK A01 T00201023  RH  073%=      5-min Rain = 0
KAI1 141423Z 04008KT 02/M02 A3034 RMK A01 T00201023  RH  073%=      5-min Rain = 0
KAI1 141424Z 04009KT 02/M02 A3034 RMK A01 T00211022  RH  073%=      5-min Rain = 0
KAI1 141425Z 04008KT 02/M02 A3034 RMK A01 T00211022  RH  073%=      5-min Rain = 0
KAI1 141426Z 04008KT 02/M02 A3034 RMK A01 T00211022  RH  073%=      5-min Rain = 0
KAI1 141427Z 03009KT 02/M02 A3035 RMK A01 T00221021  RH  073%=      5-min Rain = 0
KAI1 141428Z 04008KT 02/M02 A3035 RMK A01 T00221021  RH  073%=      5-min Rain = 0
KAI1 141429Z 04008KT 02/M02 A3035 RMK A01 T00221021  RH  073%=      5-min Rain = 0
KAI1 141430Z 04008KT 02/M02 A3035 RMK A01 T00221021  RH  073%=      5-min Rain = 0
KAI1 141431Z 03008KT 02/M02 A3035 RMK A01 T00231020  RH  073%=      5-min Rain = 0
KAI1 141432Z 04008KT 02/M02 A3035 RMK A01 T00231020  RH  073%=      5-min Rain = 0
KAI1 141433Z 04009KT 02/M02 A3035 RMK A01 T00241020  RH  073%=      5-min Rain = 0
KAI1 141434Z 04007KT 02/M02 A3035 RMK A01 T00241021  RH  073%=      5-min Rain = 0
KAI1 141435Z 04007KT 02/M02 A3035 RMK A01 T00241020  RH  073%=      5-min Rain = 0
KAI1 141436Z 04007KT 03/M02 A3035 RMK A01 T00251018  RH  073%=      5-min Rain = 0
KAI1 141437Z 04006KT 03/M02 A3035 RMK A01 T00261018  RH  073%=      5-min Rain = 0
KAI1 141438Z 04008KT 03/M02 A3035 RMK A01 T00271018  RH  073%=      5-min Rain = 0
KAI1 141439Z 04007KT 03/M02 A3035 RMK A01 T00271017  RH  072%=      5-min Rain = 0
KAI1 141440Z 04009KT 03/M02 A3035 RMK A01 T00281017  RH  072%=      5-min Rain = 0
KAI1 141441Z 04009KT 03/M02 A3035 RMK A01 T00281017  RH  072%=      5-min Rain = 0
KAI1 141442Z 04008KT 03/M02 A3035 RMK A01 T00281017  RH  072%=      5-min Rain = 0
KAI1 141443Z 03008KT 03/M02 A3035 RMK A01 T00281017  RH  072%=      5-min Rain = 0
KAI1 141444Z 04008KT 03/M02 A3035 RMK A01 T00291016  RH  072%=      5-min Rain = 0
KAI1 141445Z 04008KT 03/M02 A3035 RMK A01 T00301016  RH  072%=      5-min Rain = 0
KAI1 141446Z 04010KT 03/M02 A3035 RMK A01 T00301015  RH  072%=      5-min Rain = 0
KAI1 141447Z 04010KT 03/M02 A3035 RMK A01 T00311015  RH  072%=      5-min Rain = 0
KAI1 141448Z 04009KT 03/M01 A3035 RMK A01 T00321014  RH  072%=      5-min Rain = 0
KAI1 141449Z 04009KT 03/M01 A3035 RMK A01 T00331013  RH  072%=      5-min Rain = 0
KAI1 141450Z 03010KT 03/M01 A3035 RMK A01 T00341013  RH  071%=      5-min Rain = 0
KAI1 141451Z 04009KT 04/M01 A3036 RMK A01 T00351013  RH  071%=      5-min Rain = 0
KAI1 141452Z 03011KT 04/M01 A3036 RMK A01 T00351012  RH  071%=      5-min Rain = 0
KAI1 141453Z 04010KT 04/M01 A3035 RMK A01 T00361011  RH  071%=      5-min Rain = 0
KAI1 141454Z 04007KT 04/M01 A3035 RMK A01 T00371011  RH  071%=      5-min Rain = 0
KAI1 141455Z 04008KT 04/M01 A3036 RMK A01 T00381010  RH  071%=      5-min Rain = 0
KAI1 141456Z 04009KT 04/M01 A3036 RMK A01 T00401010  RH  070%=      5-min Rain = 0
KAI1 141457Z 04011KT 04/M01 A3036 RMK A01 T00401010  RH  070%=      5-min Rain = 0
KAI1 141458Z 04011KT 04/M01 A3036 RMK A01 T00401010  RH  070%=      5-min Rain = 0
KAI1 141459Z 04010KT 04/M01 A3036 RMK A01 T00401011  RH  070%=      5-min Rain = 0
KAI1 141500Z 04010KT 04/M01 A3036 RMK A01 T00401010  RH  070%=      5-min Rain = 0
KAI1 141501Z 05010KT 04/M01 A3036 RMK A01 T00411009  RH  070%=      5-min Rain = 0
KAI1 141502Z 05009KT 04/M01 A3036 RMK A01 T00421009  RH  069%=      5-min Rain = 0
KAI1 141503Z 04010KT 04/M01 A3036 RMK A01 T00421009  RH  069%=      5-min Rain = 0
KAI1 141504Z 05011KT 04/M01 A3036 RMK A01 T00431008  RH  069%=      5-min Rain = 0
KAI1 141505Z 05012KT 04/M01 A3036 RMK A01 T00441007  RH  069%=      5-min Rain = 0
KAI1 141506Z 05014KT 05/M01 A3036 RMK A01 T00461005  RH  069%=      5-min Rain = 0
KAI1 141507Z 06012KT 05/M01 A3037 RMK A01 T00471006  RH  069%=      5-min Rain = 0
KAI1 141508Z 06013KT 05/M01 A3037 RMK A01 T00471005  RH  069%=      5-min Rain = 0
KAI1 141509Z 06012KT 05/M01 A3037 RMK A01 T00481005  RH  069%=      5-min Rain = 0
KAI1 141510Z 05012KT 05/M00 A3037 RMK A01 T00501004  RH  068%=      5-min Rain = 0
KAI1 141511Z 05013KT 05/M00 A3037 RMK A01 T00511004  RH  068%=      5-min Rain = 0
KAI1 141512Z 05015KT 05/M01 A3037 RMK A01 T00501005  RH  067%=      5-min Rain = 0
KAI1 141513Z 05015KT 05/M01 A3037 RMK A01 T00501005  RH  067%=      5-min Rain = 0
KAI1 141514Z 05012KT 05/M01 A3037 RMK A01 T00491005  RH  068%=      5-min Rain = 0
KAI1 141515Z 04013KT 05/M00 A3037 RMK A01 T00501004  RH  068%=      5-min Rain = 0
KAI1 141516Z 04012KT 05/M00 A3037 RMK A01 T00511004  RH  067%=      5-min Rain = 0
KAI1 141517Z 04012KT 05/M00 A3037 RMK A01 T00531003  RH  067%=      5-min Rain = 0
KAI1 141518Z 05013KT 05/M00 A3037 RMK A01 T00541003  RH  067%=      5-min Rain = 0
KAI1 141519Z 05014KT 05/M00 A3037 RMK A01 T00541004  RH  066%=      5-min Rain = 0
KAI1 141520Z 06012KT 05/M00 A3037 RMK A01 T00541004  RH  066%=      5-min Rain = 0
KAI1 141521Z 05012KT 05/M00 A3037 RMK A01 T00541003  RH  066%=      5-min Rain = 0
KAI1 141522Z 05011KT 06/M00 A3037 RMK A01 T00561002  RH  066%=      5-min Rain = 0
KAI1 141523Z 05013KT 06/M00 A3037 RMK A01 T00561004  RH  065%=      5-min Rain = 0
KAI1 141524Z 05014KT 06/M00 A3037 RMK A01 T00561003  RH  066%=      5-min Rain = 0
KAI1 141525Z 05012KT 06/M00 A3037 RMK A01 T00561003  RH  066%=      5-min Rain = 0
KAI1 141526Z 05014KT 06/M00 A3037 RMK A01 T00571002  RH  065%=      5-min Rain = 0
KAI1 141527Z 05015KT 06/M00 A3037 RMK A01 T00571003  RH  065%=      5-min Rain = 0
KAI1 141528Z 05014KT 06/M00 A3037 RMK A01 T00571003  RH  065%=      5-min Rain = 0
KAI1 141529Z 06016KT 06/M00 A3038 RMK A01 T00571003  RH  065%=      5-min Rain = 0
KAI1 141530Z 06014KT 06/M00 A3037 RMK A01 T00581003  RH  065%=      5-min Rain = 0
KAI1 141531Z 05011KT 06/M00 A3038 RMK A01 T00601002  RH  065%=      5-min Rain = 0
KAI1 141532Z 05015KT 06/M00 A3038 RMK A01 T00621001  RH  064%=      5-min Rain = 0
KAI1 141533Z 05016KT 06/M00 A3038 RMK A01 T00631002  RH  063%=      5-min Rain = 0
KAI1 141534Z 05016KT 06/M00 A3038 RMK A01 T00631002  RH  063%=      5-min Rain = 0
KAI1 141535Z 06015KT 06/M00 A3038 RMK A01 T00631003  RH  063%=      5-min Rain = 0
KAI1 141536Z 05015KT 06/M00 A3038 RMK A01 T00631002  RH  063%=      5-min Rain = 0
KAI1 141537Z 05017KT 06/M00 A3038 RMK A01 T00631003  RH  063%=      5-min Rain = 0
KAI1 141538Z 05017KT 06/M00 A3038 RMK A01 T00611004  RH  063%=      5-min Rain = 0
KAI1 141539Z 05016KT 06/M00 A3038 RMK A01 T00621003  RH  063%=      5-min Rain = 0
KAI1 141540Z 06016KT 06/M00 A3038 RMK A01 T00631002  RH  063%=      5-min Rain = 0
KAI1 141541Z 06015KT 06/M00 A3038 RMK A01 T00641002  RH  062%=      5-min Rain = 0
KAI1 141542Z 06013KT 06/M00 A3038 RMK A01 T00641003  RH  062%=      5-min Rain = 0
KAI1 141543Z 06017KT 07/M00 A3038 RMK A01 T00661002  RH  062%=      5-min Rain = 0
KAI1 141544Z 06017KT 07/M00 A3038 RMK A01 T00651004  RH  062%=      5-min Rain = 0
KAI1 141545Z 05016G22KT 06/M00 A3038 RMK A01 T00641004  RH  062%=      5-min Rain = 0
KAI1 141546Z 05016KT 07/M00 A3038 RMK A01 T00651003  RH  062%=      5-min Rain = 0
KAI1 141547Z 05017KT 07/M00 A3038 RMK A01 T00661003  RH  061%=      5-min Rain = 0
KAI1 141548Z 05013KT 07/M00 A3038 RMK A01 T00661003  RH  061%=      5-min Rain = 0
KAI1 141549Z 06014KT 07/M00 A3038 RMK A01 T00681002  RH  061%=      5-min Rain = 0
KAI1 141550Z 06017KT 07/M00 A3038 RMK A01 T00681003  RH  060%=      5-min Rain = 0
KAI1 141551Z 05016KT 07/M00 A3038 RMK A01 T00671004  RH  060%=      5-min Rain = 0
KAI1 141552Z 05017KT 07/M01 A3039 RMK A01 T00671005  RH  060%=      5-min Rain = 0
KAI1 141553Z 06014KT 07/M01 A3039 RMK A01 T00661005  RH  060%=      5-min Rain = 0
KAI1 141554Z 07014KT 07/M00 A3039 RMK A01 T00671004  RH  060%=      5-min Rain = 0
KAI1 141555Z 05013KT 07/M01 A3039 RMK A01 T00681005  RH  059%=      5-min Rain = 0
KAI1 141556Z 06015KT 07/M01 A3039 RMK A01 T00681006  RH  060%=      5-min Rain = 0
KAI1 141557Z 07013KT 07/M01 A3039 RMK A01 T00691005  RH  060%=      5-min Rain = 0
KAI1 141558Z 06014KT 07/M00 A3039 RMK A01 T00711004  RH  059%=      5-min Rain = 0
KAI1 141559Z 06015KT 07/M01 A3039 RMK A01 T00711005  RH  058%=      5-min Rain = 0
KAI1 141600Z 06014G19KT 07/M01 A3039 RMK A01 T00711006  RH  058%=      5-min Rain = 0
KAI1 141601Z 06017KT 07/M01 A3039 RMK A01 T00711007  RH  058%=      5-min Rain = 0
KAI1 141602Z 06015KT 07/M01 A3039 RMK A01 T00701007  RH  058%=      5-min Rain = 0
KAI1 141603Z 06017KT 07/M01 A3039 RMK A01 T00701007  RH  058%=      5-min Rain = 0
KAI1 141604Z 06014KT 07/M01 A3039 RMK A01 T00701007  RH  058%=      5-min Rain = 0
KAI1 141605Z 05017KT 07/M01 A3039 RMK A01 T00711007  RH  058%=      5-min Rain = 0
KAI1 141606Z 05016KT 07/M01 A3039 RMK A01 T00711008  RH  057%=      5-min Rain = 0
KAI1 141607Z 05016KT 07/M01 A3039 RMK A01 T00711008  RH  057%=      5-min Rain = 0
KAI1 141608Z 06013KT 07/M01 A3039 RMK A01 T00701008  RH  058%=      5-min Rain = 0
KAI1 141609Z 04013KT 07/M01 A3039 RMK A01 T00721006  RH  058%=      5-min Rain = 0
KAI1 141610Z 06012KT 07/M01 A3039 RMK A01 T00741005  RH  057%=      5-min Rain = 0
KAI1 141611Z 04015KT 08/M01 A3039 RMK A01 T00761006  RH  056%=      5-min Rain = 0
KAI1 141612Z 04016KT 08/M01 A3039 RMK A01 T00751008  RH  056%=      5-min Rain = 0
KAI1 141613Z 05015KT 07/M01 A304 RMK A01 T00741008  RH  056%=      5-min Rain = 0
KAI1 141614Z 05015KT 07/M01 A3039 RMK A01 T00741007  RH  056%=      5-min Rain = 0
KAI1 141615Z 05014KT 08/M01 A304 RMK A01 T00751007  RH  056%=      5-min Rain = 0
KAI1 141616Z 05015KT 08/M01 A304 RMK A01 T00761007  RH  056%=      5-min Rain = 0
KAI1 141617Z 06016KT 08/M01 A304 RMK A01 T00761007  RH  055%=      5-min Rain = 0
KAI1 141618Z 05015KT 08/M01 A304 RMK A01 T00761008  RH  055%=      5-min Rain = 0
KAI1 141619Z 04016KT 08/M01 A304 RMK A01 T00751009  RH  055%=      5-min Rain = 0
KAI1 141620Z 04014KT 07/M01 A304 RMK A01 T00741009  RH  056%=      5-min Rain = 0
KAI1 141621Z 05015KT 07/M01 A304 RMK A01 T00741008  RH  056%=      5-min Rain = 0
KAI1 141622Z 06018KT 08/M01 A304 RMK A01 T00761007  RH  055%=      5-min Rain = 0
KAI1 141623Z 05015KT 08/M01 A304 RMK A01 T00761009  RH  055%=      5-min Rain = 0
KAI1 141624Z 05014KT 08/M01 A304 RMK A01 T00761009  RH  055%=      5-min Rain = 0
KAI1 141625Z 04014KT 08/M01 A304 RMK A01 T00781007  RH  055%=      5-min Rain = 0
KAI1 141626Z 04013KT 08/M01 A304 RMK A01 T00791008  RH  054%=      5-min Rain = 0
KAI1 141627Z 05012KT 08/M01 A304 RMK A01 T00791007  RH  054%=      5-min Rain = 0
KAI1 141628Z 05016KT 08/M01 A304 RMK A01 T00831006  RH  053%=      5-min Rain = 0
KAI1 141629Z 05018KT 08/M01 A304 RMK A01 T00821011  RH  052%=      5-min Rain = 0
KAI1 141630Z 05017KT 08/M01 A304 RMK A01 T00801012  RH  052%=      5-min Rain = 0
KAI1 141631Z 05016KT 08/M01 A304 RMK A01 T00791012  RH  052%=      5-min Rain = 0
KAI1 141632Z 05017G22KT 08/M01 A304 RMK A01 T00781013  RH  052%=      5-min Rain = 0
KAI1 141633Z 05015KT 08/M01 A304 RMK A01 T00771013  RH  053%=      5-min Rain = 0
KAI1 141634Z 05012KT 08/M01 A304 RMK A01 T00771013  RH  053%=      5-min Rain = 0
KAI1 141635Z 05012KT 08/M01 A304 RMK A01 T00771011  RH  054%=      5-min Rain = 0
KAI1 141636Z 06011KT 08/M01 A304 RMK A01 T00791010  RH  054%=      5-min Rain = 0
KAI1 141637Z 07012KT 08/M01 A304 RMK A01 T00801010  RH  053%=      5-min Rain = 0
KAI1 141638Z 06016KT 08/M01 A304 RMK A01 T00801011  RH  053%=      5-min Rain = 0
KAI1 141639Z 05014G19KT 08/M01 A304 RMK A01 T00801012  RH  052%=      5-min Rain = 0
KAI1 141640Z 07015KT 08/M01 A304 RMK A01 T00801013  RH  052%=      5-min Rain = 0
KAI1 141641Z 06016KT 08/M01 A304 RMK A01 T00811014  RH  051%=      5-min Rain = 0
KAI1 141642Z 05015KT 08/M02 A304 RMK A01 T00801015  RH  051%=      5-min Rain = 0
KAI1 141643Z 05011KT 08/M01 A304 RMK A01 T00801014  RH  052%=      5-min Rain = 0
KAI1 141644Z 05013KT 08/M01 A304 RMK A01 T00811012  RH  052%=      5-min Rain = 0
KAI1 141645Z 06011KT 08/M01 A304 RMK A01 T00821012  RH  052%=      5-min Rain = 0
KAI1 141646Z 06016KT 08/M01 A304 RMK A01 T00831011  RH  052%=      5-min Rain = 0
KAI1 141647Z 06016G21KT 08/M02 A304 RMK A01 T00831015  RH  050%=      5-min Rain = 0
KAI1 141648Z 06017KT 08/M02 A304 RMK A01 T00831015  RH  050%=      5-min Rain = 0
KAI1 141649Z 06014KT 08/M02 A3041 RMK A01 T00841015  RH  050%=      5-min Rain = 0
KAI1 141650Z 06014KT 08/M02 A3041 RMK A01 T00831015  RH  050%=      5-min Rain = 0
KAI1 141651Z 05012KT 08/M02 A3041 RMK A01 T00831015  RH  050%=      5-min Rain = 0
KAI1 141652Z 05013KT 08/M02 A3041 RMK A01 T00831015  RH  050%=      5-min Rain = 0
KAI1 141653Z 05014KT 08/M01 A3041 RMK A01 T00841014  RH  050%=      5-min Rain = 0
KAI1 141654Z 05015KT 08/M01 A3041 RMK A01 T00841014  RH  050%=      5-min Rain = 0
KAI1 141655Z 05013KT 08/M02 A3041 RMK A01 T00831015  RH  050%=      5-min Rain = 0
KAI1 141656Z 05010KT 08/M02 A3041 RMK A01 T00821015  RH  050%=      5-min Rain = 0
KAI1 141657Z 06010KT 09/M01 A3041 RMK A01 T00851011  RH  051%=      5-min Rain = 0
KAI1 141658Z 07011KT 09/M01 A3041 RMK A01 T00871013  RH  049%=      5-min Rain = 0
KAI1 141659Z 07011KT 09/M01 A3041 RMK A01 T00871014  RH  049%=      5-min Rain = 0
KAI1 141700Z 05013KT 09/M01 A3041 RMK A01 T00891012  RH  049%=      5-min Rain = 0
KAI1 141701Z 06014KT 09/M01 A3041 RMK A01 T00901013  RH  048%=      5-min Rain = 0
KAI1 141702Z 06014KT 09/M02 A3041 RMK A01 T00881015  RH  048%=      5-min Rain = 0
KAI1 141703Z 06015KT 09/M01 A3041 RMK A01 T00881014  RH  049%=      5-min Rain = 0
KAI1 141704Z 05016KT 09/M02 A3041 RMK A01 T00871016  RH  049%=      5-min Rain = 0
KAI1 141705Z 06014KT 09/M02 A3041 RMK A01 T00851016  RH  049%=      5-min Rain = 0
KAI1 141706Z 06013KT 08/M02 A3041 RMK A01 T00841016  RH  049%=      5-min Rain = 0
KAI1 141707Z 07013KT 09/M01 A3041 RMK A01 T00851014  RH  050%=      5-min Rain = 0
KAI1 141708Z 08014KT 09/M01 A3041 RMK A01 T00871013  RH  049%=      5-min Rain = 0
KAI1 141709Z 07013KT 09/M01 A3041 RMK A01 T00881014  RH  049%=      5-min Rain = 0
KAI1 141710Z 07014KT 09/M01 A3041 RMK A01 T00891013  RH  049%=      5-min Rain = 0
KAI1 141711Z 06011KT 09/M01 A3041 RMK A01 T00871014  RH  049%=      5-min Rain = 0
KAI1 141712Z 07014KT 09/M01 A3041 RMK A01 T00861014  RH  049%=      5-min Rain = 0
KAI1 141713Z 07012KT 09/M01 A3041 RMK A01 T00871013  RH  050%=      5-min Rain = 0
KAI1 141714Z 07011KT 09/M01 A3041 RMK A01 T00881012  RH  049%=      5-min Rain = 0
KAI1 141715Z 07009KT 09/M01 A3041 RMK A01 T00891013  RH  049%=      5-min Rain = 0
KAI1 141716Z 04012KT 09/M01 A3041 RMK A01 T00891012  RH  049%=      5-min Rain = 0
KAI1 141717Z 05012G17KT 09/M01 A3041 RMK A01 T00901013  RH  048%=      5-min Rain = 0
KAI1 141718Z 06014KT 09/M01 A3041 RMK A01 T00901013  RH  049%=      5-min Rain = 0
KAI1 141719Z 05013KT 09/M01 A3041 RMK A01 T00901013  RH  049%=      5-min Rain = 0
KAI1 141720Z 06012KT 09/M01 A3041 RMK A01 T00901013  RH  049%=      5-min Rain = 0
KAI1 141721Z 05010KT 09/M01 A3041 RMK A01 T00901013  RH  048%=      5-min Rain = 0
KAI1 141722Z 06011KT 09/M01 A304 RMK A01 T00891014  RH  049%=      5-min Rain = 0
KAI1 141723Z 06009KT 09/M01 A3041 RMK A01 T00891014  RH  048%=      5-min Rain = 0
KAI1 141724Z 07013KT 09/M01 A3041 RMK A01 T00881014  RH  049%=      5-min Rain = 0
KAI1 141725Z 07014KT 09/M01 A3041 RMK A01 T00881014  RH  049%=      5-min Rain = 0
KAI1 141726Z 07010KT 09/M02 A3041 RMK A01 T00881015  RH  049%=      5-min Rain = 0
KAI1 141727Z 05010KT 09/M01 A304 RMK A01 T00871014  RH  049%=      5-min Rain = 0
KAI1 141728Z 06008KT 09/M01 A304 RMK A01 T00871014  RH  049%=      5-min Rain = 0
KAI1 141729Z 08011KT 09/M01 A304 RMK A01 T00891013  RH  049%=      5-min Rain = 0
KAI1 141730Z 07009KT 09/M02 A304 RMK A01 T00891015  RH  048%=      5-min Rain = 0
KAI1 141731Z 06009KT 09/M01 A304 RMK A01 T00881014  RH  049%=      5-min Rain = 0
KAI1 141732Z 07012G17KT 09/M01 A304 RMK A01 T00901013  RH  049%=      5-min Rain = 0
KAI1 141733Z 06014KT 09/M01 A3041 RMK A01 T00921012  RH  048%=      5-min Rain = 0
KAI1 141734Z 05009G15KT 09/M01 A3041 RMK A01 T00921014  RH  047%=      5-min Rain = 0
KAI1 141735Z 05012KT 09/M01 A3041 RMK A01 T00901014  RH  048%=      5-min Rain = 0
KAI1 141736Z 05012KT 09/M01 A3041 RMK A01 T00901014  RH  048%=      5-min Rain = 0
KAI1 141737Z 05011KT 09/M01 A3041 RMK A01 T00901013  RH  048%=      5-min Rain = 0
KAI1 141738Z 04009KT 09/M01 A304 RMK A01 T00891014  RH  048%=      5-min Rain = 0
KAI1 141739Z 04010G15KT 09/M01 A304 RMK A01 T00921011  RH  049%=      5-min Rain = 0
KAI1 141740Z 06015KT 09/M01 A3041 RMK A01 T00941012  RH  047%=      5-min Rain = 0
KAI1 141741Z 06013KT 10/M01 A3041 RMK A01 T00951014  RH  047%=      5-min Rain = 0
KAI1 141742Z 06013KT 09/M02 A3041 RMK A01 T00931016  RH  047%=      5-min Rain = 0
KAI1 141743Z 05012KT 09/M01 A3041 RMK A01 T00911014  RH  048%=      5-min Rain = 0
KAI1 141744Z 05010KT 09/M01 A304 RMK A01 T00921014  RH  047%=      5-min Rain = 0
KAI1 141745Z 04011KT 09/M01 A304 RMK A01 T00931013  RH  048%=      5-min Rain = 0
KAI1 141746Z 04011KT 09/M01 A304 RMK A01 T00921014  RH  047%=      5-min Rain = 0
KAI1 141747Z 05009KT 09/M01 A304 RMK A01 T00911014  RH  048%=      5-min Rain = 0
KAI1 141748Z 06012KT 09/M01 A304 RMK A01 T00911013  RH  048%=      5-min Rain = 0
KAI1 141749Z 06011KT 09/M01 A304 RMK A01 T00921012  RH  048%=      5-min Rain = 0
KAI1 141750Z 09011KT 09/M01 A304 RMK A01 T00921012  RH  048%=      5-min Rain = 0
KAI1 141751Z 08009KT 09/M01 A304 RMK A01 T00931012  RH  048%=      5-min Rain = 0
KAI1 141752Z 07012KT 09/M01 A304 RMK A01 T00941012  RH  048%=      5-min Rain = 0
KAI1 141753Z 06013KT 10/M01 A304 RMK A01 T00961011  RH  047%=      5-min Rain = 0
KAI1 141754Z 04014KT 10/M01 A304 RMK A01 T00961011  RH  047%=      5-min Rain = 0
KAI1 141755Z 04013KT 10/M01 A304 RMK A01 T00961012  RH  047%=      5-min Rain = 0
KAI1 141756Z 03008KT 10/M01 A304 RMK A01 T00961013  RH  047%=      5-min Rain = 0
KAI1 141757Z 05007KT 09/M01 A304 RMK A01 T00941013  RH  047%=      5-min Rain = 0
KAI1 141758Z 05009KT 10/M01 A304 RMK A01 T00951013  RH  047%=      5-min Rain = 0
KAI1 141759Z 06014KT 10/M01 A304 RMK A01 T00951012  RH  047%=      5-min Rain = 0
KAI1 141800Z 04014KT 10/M01 A304 RMK A01 T00961012  RH  047%=      5-min Rain = 0
KAI1 141801Z 05011KT 10/M01 A304 RMK A01 T00961013  RH  047%=      5-min Rain = 0
KAI1 141802Z 06009KT 09/M01 A304 RMK A01 T00941013  RH  047%=      5-min Rain = 0
KAI1 141803Z 06010KT 10/M01 A304 RMK A01 T00951011  RH  048%=      5-min Rain = 0
KAI1 141804Z 05010KT 10/M01 A304 RMK A01 T00981010  RH  047%=      5-min Rain = 0
KAI1 141805Z 07010KT 10/M01 A304 RMK A01 T00981011  RH  046%=      5-min Rain = 0
KAI1 141806Z 07011KT 10/M01 A304 RMK A01 T00981010  RH  047%=      5-min Rain = 0
KAI1 141807Z 05011KT 10/M01 A304 RMK A01 T00991010  RH  047%=      5-min Rain = 0
KAI1 141808Z 05011KT 10/M01 A304 RMK A01 T00991012  RH  046%=      5-min Rain = 0
KAI1 141809Z 05014KT 10/M01 A304 RMK A01 T00971013  RH  046%=      5-min Rain = 0
KAI1 141810Z 04011KT 10/M01 A304 RMK A01 T00961014  RH  046%=      5-min Rain = 0
KAI1 141811Z 05009KT 09/M01 A304 RMK A01 T00941014  RH  047%=      5-min Rain = 0
KAI1 141812Z 06011G18KT 09/M01 A3039 RMK A01 T00941013  RH  047%=      5-min Rain = 0
KAI1 141813Z 06015KT 10/M01 A304 RMK A01 T00951013  RH  047%=      5-min Rain = 0
KAI1 141814Z 06015KT 10/M01 A304 RMK A01 T00961013  RH  047%=      5-min Rain = 0
KAI1 141815Z 06012KT 10/M01 A3039 RMK A01 T00971013  RH  046%=      5-min Rain = 0
KAI1 141816Z 05010KT 10/M01 A304 RMK A01 T00971013  RH  046%=      5-min Rain = 0
KAI1 141817Z 04007KT 10/M01 A3039 RMK A01 T00961014  RH  046%=      5-min Rain = 0
KAI1 141818Z 08011KT 10/M01 A3039 RMK A01 T00951013  RH  047%=      5-min Rain = 0
KAI1 141819Z 07014KT 10/M01 A3039 RMK A01 T00971012  RH  046%=      5-min Rain = 0
KAI1 141820Z 07012KT 10/M01 A3039 RMK A01 T00981013  RH  046%=      5-min Rain = 0
KAI1 141821Z 05010KT 10/M01 A3039 RMK A01 T00971014  RH  046%=      5-min Rain = 0
KAI1 141822Z 05008KT 10/M01 A3039 RMK A01 T00951013  RH  047%=      5-min Rain = 0
KAI1 141823Z 06011KT 10/M01 A3039 RMK A01 T00961012  RH  047%=      5-min Rain = 0
KAI1 141824Z 07008KT 10/M01 A3039 RMK A01 T00961013  RH  047%=      5-min Rain = 0
KAI1 141825Z 04012KT 10/M01 A3039 RMK A01 T00981011  RH  047%=      5-min Rain = 0
KAI1 141826Z 04009KT 10/M01 A3039 RMK A01 T01001011  RH  046%=      5-min Rain = 0
KAI1 141827Z 05009KT 10/M01 A3039 RMK A01 T01001012  RH  046%=      5-min Rain = 0
KAI1 141828Z 07010KT 10/M01 A3039 RMK A01 T01001012  RH  046%=      5-min Rain = 0
KAI1 141829Z 04012KT 10/M01 A3039 RMK A01 T01011009  RH  046%=      5-min Rain = 0
KAI1 141830Z 04012KT 10/M01 A3039 RMK A01 T01031011  RH  045%=      5-min Rain = 0
KAI1 141831Z 04012KT 10/M01 A3039 RMK A01 T01031012  RH  045%=      5-min Rain = 0
KAI1 141832Z 03013KT 10/M01 A3039 RMK A01 T01011014  RH  045%=      5-min Rain = 0
KAI1 141833Z 03010KT 10/M01 A3039 RMK A01 T00981014  RH  046%=      5-min Rain = 0
KAI1 141834Z 04009KT 10/M01 A3039 RMK A01 T00981013  RH  046%=      5-min Rain = 0
KAI1 141835Z 06009KT 10/M01 A3039 RMK A01 T00991011  RH  046%=      5-min Rain = 0
KAI1 141836Z 04009KT 10/M01 A3039 RMK A01 T01001012  RH  046%=      5-min Rain = 0
KAI1 141837Z 05012KT 10/M01 A3039 RMK A01 T01001011  RH  046%=      5-min Rain = 0
KAI1 141838Z 05013KT 10/M01 A3039 RMK A01 T01021011  RH  045%=      5-min Rain = 0
KAI1 141839Z 05011KT 10/M01 A3039 RMK A01 T01021013  RH  045%=      5-min Rain = 0
KAI1 141840Z 06011KT 10/M01 A3039 RMK A01 T01011012  RH  045%=      5-min Rain = 0
KAI1 141841Z 06008KT 10/M01 A3039 RMK A01 T01001014  RH  045%=      5-min Rain = 0
KAI1 141842Z 04012KT 10/M01 A3039 RMK A01 T00991012  RH  046%=      5-min Rain = 0
KAI1 141843Z 03011KT 10/M01 A3039 RMK A01 T01001012  RH  045%=      5-min Rain = 0
KAI1 141844Z 03009KT 10/M01 A3038 RMK A01 T01011012  RH  045%=      5-min Rain = 0
KAI1 141845Z 03014KT 10/M01 A3039 RMK A01 T01011012  RH  045%=      5-min Rain = 0
KAI1 141846Z 03012KT 10/M01 A3039 RMK A01 T01011012  RH  045%=      5-min Rain = 0
KAI1 141847Z 03007KT 10/M01 A3038 RMK A01 T01001012  RH  045%=      5-min Rain = 0
KAI1 141848Z 05011KT 10/M01 A3039 RMK A01 T01001013  RH  046%=      5-min Rain = 0
KAI1 141849Z 06009KT 10/M01 A3038 RMK A01 T01001013  RH  045%=      5-min Rain = 0
KAI1 141850Z 07006KT 10/M01 A3038 RMK A01 T00981014  RH  046%=      5-min Rain = 0
KAI1 141851Z 06008KT 10/M01 A3038 RMK A01 T00981012  RH  046%=      5-min Rain = 0
KAI1 141852Z 07009KT 10/M01 A3038 RMK A01 T01011010  RH  046%=      5-min Rain = 0
KAI1 141853Z 03008KT 11/M01 A3038 RMK A01 T01051010  RH  045%=      5-min Rain = 0
KAI1 141854Z 03013KT 11/M01 A3038 RMK A01 T01061011  RH  044%=      5-min Rain = 0
KAI1 141855Z 04010KT 11/M01 A3038 RMK A01 T01051011  RH  045%=      5-min Rain = 0
KAI1 141856Z 04008KT 10/M01 A3038 RMK A01 T01041013  RH  044%=      5-min Rain = 0
KAI1 141857Z 05008KT 10/M01 A3038 RMK A01 T01011013  RH  045%=      5-min Rain = 0
KAI1 141858Z 07013KT 10/M01 A3038 RMK A01 T01021012  RH  045%=      5-min Rain = 0
KAI1 141859Z 07012KT 10/M01 A3038 RMK A01 T01031013  RH  045%=      5-min Rain = 0
KAI1 141900Z 07012KT 10/M01 A3038 RMK A01 T01031013  RH  044%=      5-min Rain = 0
KAI1 141901Z 05013KT 10/M01 A3038 RMK A01 T01041013  RH  044%=      5-min Rain = 0
KAI1 141902Z 04011KT 10/M01 A3038 RMK A01 T01031014  RH  044%=      5-min Rain = 0
KAI1 141903Z 04010KT 10/M01 A3038 RMK A01 T01021013  RH  045%=      5-min Rain = 0
KAI1 141904Z 03009KT 10/M01 A3038 RMK A01 T01021014  RH  044%=      5-min Rain = 0
KAI1 141905Z 02012KT 10/M01 A3038 RMK A01 T01021013  RH  044%=      5-min Rain = 0
KAI1 141906Z 02012KT 10/M01 A3038 RMK A01 T01021013  RH  044%=      5-min Rain = 0
KAI1 141907Z 03012KT 10/M01 A3038 RMK A01 T01021013  RH  044%=      5-min Rain = 0
KAI1 141908Z 02011KT 10/M01 A3038 RMK A01 T01031012  RH  045%=      5-min Rain = 0
KAI1 141909Z 02009KT 11/M01 A3038 RMK A01 T01061011  RH  044%=      5-min Rain = 0
KAI1 141910Z 03011KT 11/M01 A3038 RMK A01 T01061012  RH  044%=      5-min Rain = 0
KAI1 141911Z 03008KT 11/M01 A3038 RMK A01 T01051013  RH  044%=      5-min Rain = 0
KAI1 141912Z 02007KT 10/M02 A3038 RMK A01 T01031015  RH  044%=      5-min Rain = 0
KAI1 141913Z 04009KT 10/M01 A3038 RMK A01 T01021014  RH  044%=      5-min Rain = 0
KAI1 141914Z 04008KT 10/M01 A3038 RMK A01 T01031013  RH  045%=      5-min Rain = 0
KAI1 141915Z 03008KT 10/M01 A3038 RMK A01 T01021014  RH  044%=      5-min Rain = 0
KAI1 141916Z 03007KT 10/M01 A3038 RMK A01 T01011013  RH  045%=      5-min Rain = 0
KAI1 141917Z 05009KT 10/M01 A3038 RMK A01 T01041010  RH  045%=      5-min Rain = 0
KAI1 141918Z 03011KT 11/M01 A3038 RMK A01 T01081013  RH  043%=      5-min Rain = 0
KAI1 141919Z 02011KT 11/M02 A3038 RMK A01 T01071016  RH  042%=      5-min Rain = 0
KAI1 141920Z 03012KT 11/M01 A3038 RMK A01 T01061014  RH  043%=      5-min Rain = 0
KAI1 141921Z 07009KT 11/M01 A3038 RMK A01 T01061013  RH  044%=      5-min Rain = 0
KAI1 141922Z 07010KT 11/M01 A3038 RMK A01 T01051013  RH  044%=      5-min Rain = 0
KAI1 141923Z 07007KT 10/M01 A3038 RMK A01 T01041013  RH  044%=      5-min Rain = 0
KAI1 141924Z 08007KT 10/M01 A3038 RMK A01 T01041013  RH  044%=      5-min Rain = 0
KAI1 141925Z 07007KT 10/M01 A3037 RMK A01 T01021014  RH  044%=      5-min Rain = 0
KAI1 141926Z 04007KT 10/M01 A3038 RMK A01 T01031013  RH  045%=      5-min Rain = 0
KAI1 141927Z 02009KT 11/M01 A3038 RMK A01 T01061013  RH  044%=      5-min Rain = 0
KAI1 141928Z 01007KT 11/M02 A3037 RMK A01 T01051016  RH  043%=      5-min Rain = 0
KAI1 141929Z 02009KT 11/M01 A3037 RMK A01 T01071013  RH  043%=      5-min Rain = 0
KAI1 141930Z 03011KT 11/M01 A3038 RMK A01 T01091012  RH  043%=      5-min Rain = 0
KAI1 141931Z 03009KT 11/M01 A3038 RMK A01 T01091013  RH  043%=      5-min Rain = 0
KAI1 141932Z 02008KT 11/M02 A3037 RMK A01 T01071015  RH  043%=      5-min Rain = 0
KAI1 141933Z 03007KT 11/M02 A3037 RMK A01 T01051015  RH  043%=      5-min Rain = 0
KAI1 141934Z 05011KT 11/M01 A3037 RMK A01 T01061012  RH  044%=      5-min Rain = 0
KAI1 141935Z 06010KT 11/M01 A3037 RMK A01 T01071013  RH  043%=      5-min Rain = 0
KAI1 141936Z 07009KT 11/M01 A3037 RMK A01 T01071013  RH  043%=      5-min Rain = 0
KAI1 141937Z 08007KT 11/M01 A3037 RMK A01 T01071014  RH  043%=      5-min Rain = 0
KAI1 141938Z 07005KT 11/M01 A3037 RMK A01 T01051014  RH  044%=      5-min Rain = 0
KAI1 141939Z 07006KT 11/M01 A3037 RMK A01 T01061011  RH  044%=      5-min Rain = 0
KAI1 141940Z 06009KT 11/M01 A3037 RMK A01 T01081013  RH  043%=      5-min Rain = 0
KAI1 141941Z 07007KT 11/M01 A3037 RMK A01 T01071013  RH  043%=      5-min Rain = 0
KAI1 141942Z 05006G13KT 11/M01 A3037 RMK A01 T01071014  RH  043%=      5-min Rain = 0
KAI1 141943Z 04014KT 11/M01 A3037 RMK A01 T01071013  RH  043%=      5-min Rain = 0
KAI1 141944Z 04011KT 11/M01 A3037 RMK A01 T01081012  RH  043%=      5-min Rain = 0
KAI1 141945Z 05011KT 11/M01 A3037 RMK A01 T01091012  RH  043%=      5-min Rain = 0
KAI1 141946Z 04008KT 11/M01 A3037 RMK A01 T01081014  RH  042%=      5-min Rain = 0
KAI1 141947Z 03006KT 11/M01 A3037 RMK A01 T01071014  RH  043%=      5-min Rain = 0
KAI1 141948Z 02007KT 11/M01 A3037 RMK A01 T01061013  RH  043%=      5-min Rain = 0
KAI1 141949Z 02006KT 11/M01 A3037 RMK A01 T01061014  RH  043%=      5-min Rain = 0
KAI1 141950Z 02006KT 11/M01 A3037 RMK A01 T01051012  RH  044%=      5-min Rain = 0
KAI1 141951Z 03006KT 11/M01 A3037 RMK A01 T01061012  RH  044%=      5-min Rain = 0
KAI1 141952Z 02007KT 11/M01 A3037 RMK A01 T01071012  RH  044%=      5-min Rain = 0
KAI1 141953Z 02006KT 11/M01 A3037 RMK A01 T01061014  RH  043%=      5-min Rain = 0
KAI1 141954Z 03005KT 11/M01 A3037 RMK A01 T01051014  RH  044%=      5-min Rain = 0
KAI1 141955Z 05004KT 11/M01 A3037 RMK A01 T01061012  RH  044%=      5-min Rain = 0
KAI1 141956Z 06010KT 11/M01 A3037 RMK A01 T01071013  RH  043%=      5-min Rain = 0
KAI1 141957Z 06007KT 11/M02 A3037 RMK A01 T01071015  RH  042%=      5-min Rain = 0
KAI1 141958Z 06006KT 11/M01 A3037 RMK A01 T01081013  RH  043%=      5-min Rain = 0
KAI1 141959Z 07009KT 11/M01 A3037 RMK A01 T01121012  RH  042%=      5-min Rain = 0
KAI1 142000Z 06009KT 11/M01 A3037 RMK A01 T01131013  RH  041%=      5-min Rain = 0
KAI1 142001Z 07009KT 11/M01 A3037 RMK A01 T01121014  RH  041%=      5-min Rain = 0
KAI1 142002Z 06007KT 11/M02 A3037 RMK A01 T01111015  RH  042%=      5-min Rain = 0
KAI1 142003Z 05008KT 11/M01 A3037 RMK A01 T01111012  RH  042%=      5-min Rain = 0
KAI1 142004Z 07011KT 11/M01 A3037 RMK A01 T01121013  RH  042%=      5-min Rain = 0
KAI1 142005Z 06012KT 11/M01 A3037 RMK A01 T01131012  RH  042%=      5-min Rain = 0
KAI1 142006Z 07011KT 11/M01 A3037 RMK A01 T01141013  RH  041%=      5-min Rain = 0
KAI1 142007Z 08010KT 11/M01 A3037 RMK A01 T01121014  RH  041%=      5-min Rain = 0
KAI1 142008Z 08008KT 11/M01 A3037 RMK A01 T01121013  RH  042%=      5-min Rain = 0
KAI1 142009Z 07006KT 11/M01 A3037 RMK A01 T01131013  RH  042%=      5-min Rain = 0
KAI1 142010Z 04004KT 11/M01 A3037 RMK A01 T01121014  RH  041%=      5-min Rain = 0
KAI1 142011Z 07004KT 11/M01 A3036 RMK A01 T01121012  RH  042%=      5-min Rain = 0
KAI1 142012Z 08003KT 11/M01 A3036 RMK A01 T01121014  RH  041%=      5-min Rain = 0
KAI1 142013Z 09005KT 11/M02 A3036 RMK A01 T01111015  RH  042%=      5-min Rain = 0
KAI1 142014Z 07006KT 11/M01 A3036 RMK A01 T01111013  RH  042%=      5-min Rain = 0
KAI1 142015Z 06003KT 11/M01 A3036 RMK A01 T01131012  RH  042%=      5-min Rain = 0
KAI1 142016Z 07006KT 12/M01 A3036 RMK A01 T01151012  RH  041%=      5-min Rain = 0
KAI1 142017Z 06010G15KT 12/M01 A3036 RMK A01 T01151013  RH  041%=      5-min Rain = 0
KAI1 142018Z 06011KT 12/M01 A3037 RMK A01 T01161014  RH  040%=      5-min Rain = 0
KAI1 142019Z 06009KT 12/M02 A3037 RMK A01 T01151016  RH  040%=      5-min Rain = 0
KAI1 142020Z 05010KT 11/M02 A3036 RMK A01 T01141016  RH  040%=      5-min Rain = 0
KAI1 142021Z 05011KT 12/M01 A3037 RMK A01 T01161014  RH  040%=      5-min Rain = 0
KAI1 142022Z 06010KT 12/M01 A3037 RMK A01 T01171014  RH  040%=      5-min Rain = 0
KAI1 142023Z 05010KT 12/M02 A3037 RMK A01 T01161016  RH  040%=      5-min Rain = 0
KAI1 142024Z 03005KT 11/M02 A3036 RMK A01 T01121018  RH  040%=      5-min Rain = 0
KAI1 142025Z 07005KT 11/M02 A3036 RMK A01 T01111015  RH  042%=      5-min Rain = 0
KAI1 142026Z 06005KT 11/M02 A3036 RMK A01 T01131015  RH  041%=      5-min Rain = 0
KAI1 142027Z 07006KT 11/M02 A3036 RMK A01 T01121016  RH  041%=      5-min Rain = 0
KAI1 142028Z 07004KT 11/M02 A3036 RMK A01 T01121016  RH  041%=      5-min Rain = 0
KAI1 142029Z 06005KT 11/M02 A3036 RMK A01 T01111016  RH  041%=      5-min Rain = 0
KAI1 142030Z 07004KT 11/M02 A3036 RMK A01 T01111015  RH  041%=      5-min Rain = 0
KAI1 142031Z 06005KT 11/M02 A3036 RMK A01 T01111016  RH  041%=      5-min Rain = 0
KAI1 142032Z 06008KT 11/M02 A3036 RMK A01 T01121015  RH  041%=      5-min Rain = 0
KAI1 142033Z 06008KT 11/M02 A3036 RMK A01 T01141015  RH  041%=      5-min Rain = 0
KAI1 142034Z 06010KT 12/M01 A3036 RMK A01 T01151014  RH  041%=      5-min Rain = 0
KAI1 142035Z 05008KT 12/M02 A3036 RMK A01 T01151015  RH  040%=      5-min Rain = 0
KAI1 142036Z 04005KT 11/M02 A3036 RMK A01 T01141016  RH  040%=      5-min Rain = 0
KAI1 142037Z 04004KT 11/M02 A3036 RMK A01 T01121016  RH  041%=      5-min Rain = 0
KAI1 142038Z 06004KT 11/M02 A3036 RMK A01 T01131015  RH  041%=      5-min Rain = 0
KAI1 142039Z 06005KT 11/M01 A3036 RMK A01 T01141014  RH  041%=      5-min Rain = 0
KAI1 142040Z 06005KT 12/M02 A3036 RMK A01 T01161015  RH  040%=      5-min Rain = 0
KAI1 142041Z 06005KT 12/M01 A3036 RMK A01 T01171014  RH  040%=      5-min Rain = 0
KAI1 142042Z 04009G15KT 12/M01 A3036 RMK A01 T01161014  RH  040%=      5-min Rain = 0
KAI1 142043Z 04013KT 12/M01 A3036 RMK A01 T01181014  RH  040%=      5-min Rain = 0
KAI1 142044Z 05009KT 12/M02 A3036 RMK A01 T01161017  RH  040%=      5-min Rain = 0
KAI1 142045Z 04009KT 12/M02 A3036 RMK A01 T01151016  RH  040%=      5-min Rain = 0
KAI1 142046Z 04011KT 12/M01 A3036 RMK A01 T01151014  RH  041%=      5-min Rain = 0
KAI1 142047Z 04010KT 12/M01 A3036 RMK A01 T01161013  RH  040%=      5-min Rain = 0
KAI1 142048Z 02009KT 12/M01 A3036 RMK A01 T01181014  RH  040%=      5-min Rain = 0
KAI1 142049Z 02009KT 12/M02 A3036 RMK A01 T01171015  RH  040%=      5-min Rain = 0
KAI1 142050Z 03005KT 11/M02 A3036 RMK A01 T01141017  RH  040%=      5-min Rain = 0
KAI1 142051Z 04006KT 11/M02 A3036 RMK A01 T01131015  RH  041%=      5-min Rain = 0
KAI1 142052Z 03007KT 12/M01 A3036 RMK A01 T01151014  RH  041%=      5-min Rain = 0
KAI1 142053Z 05006KT 12/M02 A3036 RMK A01 T01151015  RH  040%=      5-min Rain = 0
KAI1 142054Z 04004KT 11/M02 A3036 RMK A01 T01141015  RH  041%=      5-min Rain = 0
KAI1 142055Z 05006KT 12/M01 A3036 RMK A01 T01151013  RH  041%=      5-min Rain = 0
KAI1 142056Z 06010KT 12/M01 A3036 RMK A01 T01161014  RH  041%=      5-min Rain = 0
KAI1 142057Z 03009KT 12/M01 A3036 RMK A01 T01171014  RH  040%=      5-min Rain = 0
KAI1 142058Z 04010KT 12/M02 A3036 RMK A01 T01161015  RH  040%=      5-min Rain = 0
KAI1 142059Z 07009KT 12/M01 A3036 RMK A01 T01161014  RH  040%=      5-min Rain = 0
KAI1 142100Z 06007KT 12/M02 A3036 RMK A01 T01181015  RH  040%=      5-min Rain = 0
KAI1 142101Z 07008KT 12/M02 A3036 RMK A01 T01181015  RH  040%=      5-min Rain = 0
KAI1 142102Z 06010KT 12/M02 A3036 RMK A01 T01171016  RH  039%=      5-min Rain = 0
KAI1 142103Z 07008KT 12/M02 A3036 RMK A01 T01161017  RH  040%=      5-min Rain = 0
KAI1 142104Z 05007KT 12/M02 A3036 RMK A01 T01151015  RH  040%=      5-min Rain = 0
KAI1 142105Z 04007KT 12/M02 A3036 RMK A01 T01161015  RH  040%=      5-min Rain = 0
KAI1 142106Z 04006KT 12/M02 A3036 RMK A01 T01161015  RH  040%=      5-min Rain = 0
KAI1 142107Z 03006KT 12/M01 A3036 RMK A01 T01161014  RH  040%=      5-min Rain = 0
KAI1 142108Z 02005KT 12/M02 A3036 RMK A01 T01151015  RH  040%=      5-min Rain = 0
KAI1 142109Z 03006KT 12/M01 A3036 RMK A01 T01151013  RH  041%=      5-min Rain = 0
KAI1 142110Z 06005KT 12/M01 A3036 RMK A01 T01171013  RH  041%=      5-min Rain = 0
KAI1 142111Z 06006KT 12/M01 A3036 RMK A01 T01181013  RH  040%=      5-min Rain = 0
KAI1 142112Z 07006KT 12/M02 A3036 RMK A01 T01171015  RH  040%=      5-min Rain = 0
KAI1 142113Z 05005KT 12/M02 A3036 RMK A01 T01161015  RH  040%=      5-min Rain = 0
KAI1 142114Z 03007KT 12/M01 A3036 RMK A01 T01151014  RH  040%=      5-min Rain = 0
KAI1 142115Z 04007KT 12/M01 A3036 RMK A01 T01161013  RH  041%=      5-min Rain = 0
KAI1 142116Z 05007KT 12/M01 A3036 RMK A01 T01171013  RH  040%=      5-min Rain = 0
KAI1 142117Z 04007KT 12/M01 A3036 RMK A01 T01181014  RH  040%=      5-min Rain = 0
KAI1 142118Z 06009KT 12/M01 A3036 RMK A01 T01181013  RH  040%=      5-min Rain = 0
KAI1 142119Z 05011KT 12/M01 A3036 RMK A01 T01191014  RH  040%=      5-min Rain = 0
KAI1 142120Z 05009KT 12/M02 A3036 RMK A01 T01181015  RH  040%=      5-min Rain = 0
KAI1 142121Z 06009KT 12/M02 A3036 RMK A01 T01171015  RH  040%=      5-min Rain = 0
KAI1 142122Z 05007KT 12/M02 A3036 RMK A01 T01161015  RH  040%=      5-min Rain = 0
KAI1 142123Z 05006KT 12/M02 A3036 RMK A01 T01151016  RH  040%=      5-min Rain = 0
KAI1 142124Z 06004KT 11/M02 A3036 RMK A01 T01121017  RH  040%=      5-min Rain = 0
KAI1 142125Z 06004KT 11/M02 A3036 RMK A01 T01121017  RH  041%=      5-min Rain = 0
KAI1 142126Z 07005KT 11/M02 A3036 RMK A01 T01131015  RH  041%=      5-min Rain = 0
KAI1 142127Z 07004KT 11/M02 A3036 RMK A01 T01141015  RH  040%=      5-min Rain = 0
KAI1 142128Z 08005KT 12/M02 A3036 RMK A01 T01151016  RH  040%=      5-min Rain = 0
KAI1 142129Z 08005KT 12/M02 A3036 RMK A01 T01151016  RH  040%=      5-min Rain = 0
KAI1 142130Z 07004KT 12/M02 A3036 RMK A01 T01151016  RH  040%=      5-min Rain = 0
KAI1 142131Z 07005KT 12/M02 A3036 RMK A01 T01161015  RH  040%=      5-min Rain = 0
KAI1 142132Z 05009KT 12/M01 A3036 RMK A01 T01171014  RH  040%=      5-min Rain = 0
KAI1 142133Z 06009KT 12/M01 A3036 RMK A01 T01181014  RH  040%=      5-min Rain = 0
KAI1 142134Z 05008KT 12/M01 A3036 RMK A01 T01181014  RH  040%=      5-min Rain = 0
KAI1 142135Z 06008KT 12/M01 A3036 RMK A01 T01181014  RH  040%=      5-min Rain = 0
KAI1 142136Z 06007KT 12/M02 A3036 RMK A01 T01171016  RH  039%=      5-min Rain = 0
KAI1 142137Z 04006KT 12/M02 A3036 RMK A01 T01161016  RH  040%=      5-min Rain = 0
KAI1 142138Z 04005KT 12/M02 A3036 RMK A01 T01161016  RH  040%=      5-min Rain = 0
KAI1 142139Z 04005KT 12/M02 A3036 RMK A01 T01151016  RH  040%=      5-min Rain = 0
KAI1 142140Z 04005KT 11/M02 A3036 RMK A01 T01141017  RH  040%=      5-min Rain = 0
KAI1 142141Z 04006KT 11/M02 A3036 RMK A01 T01141016  RH  041%=      5-min Rain = 0
KAI1 142142Z 05004KT 11/M02 A3036 RMK A01 T01141017  RH  040%=      5-min Rain = 0
KAI1 142143Z 05007KT 11/M02 A3036 RMK A01 T01131016  RH  041%=      5-min Rain = 0
KAI1 142144Z 04008KT 12/M01 A3036 RMK A01 T01161013  RH  041%=      5-min Rain = 0
KAI1 142145Z 04007KT 12/M01 A3036 RMK A01 T01161014  RH  040%=      5-min Rain = 0
KAI1 142146Z 04005KT 12/M01 A3036 RMK A01 T01161014  RH  040%=      5-min Rain = 0
KAI1 142147Z 05005KT 12/M02 A3036 RMK A01 T01151015  RH  041%=      5-min Rain = 0
KAI1 142148Z 05004KT 12/M02 A3036 RMK A01 T01151015  RH  040%=      5-min Rain = 0
KAI1 142149Z 05004KT 11/M02 A3036 RMK A01 T01141016  RH  041%=      5-min Rain = 0
KAI1 142150Z 04003KT 11/M02 A3036 RMK A01 T01141015  RH  041%=      5-min Rain = 0
KAI1 142151Z 05004KT 11/M01 A3036 RMK A01 T01141014  RH  041%=      5-min Rain = 0
KAI1 142152Z 04005KT 12/M02 A3036 RMK A01 T01151015  RH  041%=      5-min Rain = 0
KAI1 142153Z 07004KT 12/M01 A3036 RMK A01 T01161014  RH  040%=      5-min Rain = 0
KAI1 142154Z 03006KT 12/M01 A3036 RMK A01 T01181014  RH  040%=      5-min Rain = 0
KAI1 142155Z 04006KT 12/M02 A3036 RMK A01 T01181015  RH  040%=      5-min Rain = 0
KAI1 142156Z 03008KT 12/M02 A3036 RMK A01 T01171015  RH  040%=      5-min Rain = 0
KAI1 142157Z 02008KT 12/M01 A3036 RMK A01 T01161014  RH  040%=      5-min Rain = 0
KAI1 142158Z 03008KT 12/M01 A3036 RMK A01 T01161014  RH  040%=      5-min Rain = 0
KAI1 142159Z 03008KT 12/M01 A3036 RMK A01 T01161014  RH  041%=      5-min Rain = 0
KAI1 142200Z 04006KT 12/M01 A3036 RMK A01 T01161013  RH  041%=      5-min Rain = 0
KAI1 142201Z 07005KT 12/M01 A3036 RMK A01 T01161013  RH  041%=      5-min Rain = 0
KAI1 142202Z 08007KT 12/M01 A3036 RMK A01 T01171011  RH  041%=      5-min Rain = 0
KAI1 142203Z 08008KT 12/M01 A3036 RMK A01 T01191012  RH  040%=      5-min Rain = 0
KAI1 142204Z 07005KT 12/M01 A3036 RMK A01 T01181012  RH  040%=      5-min Rain = 0
KAI1 142205Z 09007KT 12/M01 A3036 RMK A01 T01171012  RH  041%=      5-min Rain = 0
KAI1 142206Z 09007KT 12/M01 A3036 RMK A01 T01171012  RH  041%=      5-min Rain = 0
KAI1 142207Z 07009KT 12/M01 A3036 RMK A01 T01171012  RH  041%=      5-min Rain = 0
KAI1 142208Z 08007KT 12/M01 A3036 RMK A01 T01171012  RH  041%=      5-min Rain = 0
KAI1 142209Z 07006KT 12/M01 A3036 RMK A01 T01171013  RH  041%=      5-min Rain = 0
KAI1 142210Z 08008KT 12/M01 A3036 RMK A01 T01171012  RH  041%=      5-min Rain = 0
KAI1 142211Z 06008KT 12/M01 A3036 RMK A01 T01181012  RH  041%=      5-min Rain = 0
KAI1 142212Z 06006KT 12/M01 A3036 RMK A01 T01181012  RH  041%=      5-min Rain = 0
KAI1 142213Z 06005KT 12/M01 A3036 RMK A01 T01161013  RH  041%=      5-min Rain = 0
KAI1 142214Z 07006KT 12/M01 A3036 RMK A01 T01151013  RH  041%=      5-min Rain = 0
KAI1 142215Z 08006KT 12/M01 A3036 RMK A01 T01151014  RH  041%=      5-min Rain = 0
KAI1 142216Z 09005KT 11/M01 A3036 RMK A01 T01141014  RH  041%=      5-min Rain = 0
KAI1 142217Z 10004KT 11/M01 A3036 RMK A01 T01141014  RH  041%=      5-min Rain = 0
KAI1 142218Z 09004KT 11/M01 A3036 RMK A01 T01141014  RH  041%=      5-min Rain = 0
KAI1 142219Z 09003KT 11/M01 A3036 RMK A01 T01141014  RH  041%=      5-min Rain = 0
KAI1 142220Z 09001KT 11/M01 A3036 RMK A01 T01141014  RH  041%=      5-min Rain = 0
KAI1 142221Z 09000KT 11/M01 A3036 RMK A01 T01141014  RH  041%=      5-min Rain = 0
KAI1 142222Z 00000KT 12/M01 A3036 RMK A01 T01151013  RH  041%=      5-min Rain = 0
KAI1 142223Z 11002KT 12/M01 A3036 RMK A01 T01171013  RH  041%=      5-min Rain = 0
KAI1 142224Z 08005KT 12/M01 A3036 RMK A01 T01171014  RH  040%=      5-min Rain = 0
KAI1 142225Z 08007KT 12/M01 A3036 RMK A01 T01161014  RH  040%=      5-min Rain = 0
KAI1 142226Z 08006KT 12/M01 A3036 RMK A01 T01151014  RH  041%=      5-min Rain = 0
KAI1 142227Z 08006KT 12/M01 A3036 RMK A01 T01151014  RH  041%=      5-min Rain = 0
KAI1 142228Z 09004KT 11/M01 A3036 RMK A01 T01141014  RH  041%=      5-min Rain = 0
KAI1 142229Z 11004KT 11/M01 A3036 RMK A01 T01141013  RH  041%=      5-min Rain = 0
KAI1 142230Z 12004KT 11/M01 A3036 RMK A01 T01141013  RH  041%=      5-min Rain = 0
KAI1 142231Z 09004KT 11/M01 A3036 RMK A01 T01141014  RH  041%=      5-min Rain = 0
KAI1 142232Z 08005KT 11/M01 A3036 RMK A01 T01141014  RH  041%=      5-min Rain = 0
KAI1 142233Z 07005KT 11/M01 A3036 RMK A01 T01131014  RH  041%=      5-min Rain = 0
KAI1 142234Z 06003KT 11/M01 A3036 RMK A01 T01141014  RH  041%=      5-min Rain = 0
KAI1 142235Z 10003KT 11/M01 A3036 RMK A01 T01131014  RH  041%=      5-min Rain = 0
KAI1 142236Z 10005KT 11/M01 A3036 RMK A01 T01131013  RH  041%=      5-min Rain = 0
KAI1 142237Z 10005KT 11/M01 A3036 RMK A01 T01141013  RH  041%=      5-min Rain = 0
KAI1 142238Z 09005KT 12/M01 A3036 RMK A01 T01151013  RH  041%=      5-min Rain = 0
KAI1 142239Z 09005KT 11/M01 A3036 RMK A01 T01141014  RH  041%=      5-min Rain = 0
KAI1 142240Z 09005KT 11/M01 A3036 RMK A01 T01131014  RH  041%=      5-min Rain = 0
KAI1 142241Z 10005KT 11/M01 A3036 RMK A01 T01121014  RH  041%=      5-min Rain = 0
KAI1 142242Z 11006KT 11/M01 A3036 RMK A01 T01121014  RH  042%=      5-min Rain = 0
KAI1 142243Z 08005KT 11/M01 A3036 RMK A01 T01121014  RH  042%=      5-min Rain = 0
KAI1 142244Z 10004KT 11/M01 A3036 RMK A01 T01121013  RH  042%=      5-min Rain = 0
KAI1 142245Z 10006KT 11/M01 A3036 RMK A01 T01121014  RH  042%=      5-min Rain = 0
KAI1 142246Z 10006KT 11/M01 A3036 RMK A01 T01121014  RH  042%=      5-min Rain = 0
KAI1 142247Z 10006KT 11/M01 A3036 RMK A01 T01111014  RH  042%=      5-min Rain = 0
KAI1 142248Z 11006KT 11/M01 A3036 RMK A01 T01101014  RH  042%=      5-min Rain = 0
KAI1 142249Z 11006KT 11/M01 A3036 RMK A01 T01111014  RH  042%=      5-min Rain = 0
KAI1 142250Z 11004KT 11/M01 A3036 RMK A01 T01101014  RH  042%=      5-min Rain = 0
KAI1 142251Z 12006KT 11/M01 A3036 RMK A01 T01111014  RH  042%=      5-min Rain = 0
KAI1 142252Z 13006KT 11/M02 A3036 RMK A01 T01101015  RH  042%=      5-min Rain = 0
KAI1 142253Z 13004KT 11/M02 A3036 RMK A01 T01101015  RH  042%=      5-min Rain = 0
KAI1 142254Z 13004KT 11/M02 A3036 RMK A01 T01101015  RH  042%=      5-min Rain = 0
KAI1 142255Z 14004KT 11/M01 A3036 RMK A01 T01101014  RH  042%=      5-min Rain = 0
KAI1 142256Z 12005KT 11/M01 A3036 RMK A01 T01101014  RH  042%=      5-min Rain = 0
KAI1 142257Z 11005KT 11/M01 A3036 RMK A01 T01111014  RH  042%=      5-min Rain = 0
KAI1 142258Z 10006KT 11/M01 A3036 RMK A01 T01101014  RH  042%=      5-min Rain = 0
KAI1 142259Z 08005KT 11/M01 A3036 RMK A01 T01101014  RH  042%=      5-min Rain = 0
KAI1 142300Z 09005KT 11/M02 A3036 RMK A01 T01091015  RH  042%=      5-min Rain = 0
KAI1 142301Z 09005KT 11/M02 A3036 RMK A01 T01081015  RH  042%=      5-min Rain = 0
KAI1 142302Z 10004KT 11/M02 A3036 RMK A01 T01081015  RH  042%=      5-min Rain = 0
KAI1 142303Z 10004KT 11/M02 A3037 RMK A01 T01081015  RH  042%=      5-min Rain = 0
KAI1 142304Z 10004KT 11/M02 A3037 RMK A01 T01071015  RH  043%=      5-min Rain = 0
KAI1 142305Z 09004KT 11/M01 A3037 RMK A01 T01071014  RH  043%=      5-min Rain = 0
KAI1 142306Z 08006KT 11/M01 A3037 RMK A01 T01071014  RH  043%=      5-min Rain = 0
KAI1 142307Z 08006KT 11/M02 A3037 RMK A01 T01071015  RH  043%=      5-min Rain = 0
KAI1 142308Z 09006KT 11/M02 A3037 RMK A01 T01061015  RH  043%=      5-min Rain = 0
KAI1 142309Z 09006KT 11/M02 A3037 RMK A01 T01051015  RH  043%=      5-min Rain = 0
KAI1 142310Z 09006KT 11/M02 A3036 RMK A01 T01051015  RH  043%=      5-min Rain = 0
KAI1 142311Z 09005KT 10/M02 A3037 RMK A01 T01041015  RH  044%=      5-min Rain = 0
KAI1 142312Z 09005KT 10/M02 A3037 RMK A01 T01041015  RH  044%=      5-min Rain = 0
KAI1 142313Z 09005KT 10/M02 A3037 RMK A01 T01031015  RH  044%=      5-min Rain = 0
KAI1 142314Z 10006KT 10/M02 A3037 RMK A01 T01031015  RH  044%=      5-min Rain = 0
KAI1 142315Z 10006KT 10/M02 A3037 RMK A01 T01021015  RH  044%=      5-min Rain = 0
KAI1 142316Z 10006KT 10/M02 A3037 RMK A01 T01021015  RH  044%=      5-min Rain = 0
KAI1 142317Z 10006KT 10/M02 A3037 RMK A01 T01011015  RH  044%=      5-min Rain = 0
KAI1 142318Z 10005KT 10/M02 A3037 RMK A01 T01011015  RH  044%=      5-min Rain = 0
KAI1 142319Z 09005KT 10/M02 A3037 RMK A01 T01001016  RH  044%=      5-min Rain = 0
KAI1 142320Z 09005KT 10/M02 A3037 RMK A01 T00991016  RH  045%=      5-min Rain = 0
KAI1 142321Z 10004KT 10/M02 A3037 RMK A01 T00991015  RH  045%=      5-min Rain = 0
KAI1 142322Z 10005KT 10/M02 A3037 RMK A01 T00981015  RH  045%=      5-min Rain = 0
KAI1 142323Z 10004KT 10/M02 A3037 RMK A01 T00971015  RH  046%=      5-min Rain = 0
KAI1 142324Z 10004KT 10/M02 A3037 RMK A01 T00961015  RH  046%=      5-min Rain = 0
KAI1 142325Z 10004KT 10/M02 A3037 RMK A01 T00951015  RH  046%=      5-min Rain = 0
KAI1 142326Z 10005KT 09/M02 A3037 RMK A01 T00941015  RH  046%=      5-min Rain = 0
KAI1 142327Z 10005KT 09/M02 A3037 RMK A01 T00931016  RH  047%=      5-min Rain = 0
KAI1 142328Z 10005KT 09/M02 A3037 RMK A01 T00921016  RH  047%=      5-min Rain = 0
KAI1 142329Z 10005KT 09/M02 A3037 RMK A01 T00911016  RH  047%=      5-min Rain = 0
KAI1 142330Z 10004KT 09/M02 A3037 RMK A01 T00901017  RH  047%=      5-min Rain = 0
KAI1 142331Z 10005KT 09/M02 A3037 RMK A01 T00891017  RH  047%=      5-min Rain = 0
KAI1 142332Z 10005KT 09/M02 A3037 RMK A01 T00881018  RH  048%=      5-min Rain = 0
KAI1 142333Z 10005KT 09/M02 A3037 RMK A01 T00861019  RH  048%=      5-min Rain = 0
KAI1 142334Z 10005KT 09/M02 A3037 RMK A01 T00851019  RH  048%=      5-min Rain = 0
KAI1 142335Z 10005KT 08/M02 A3037 RMK A01 T00841020  RH  048%=      5-min Rain = 0
KAI1 142336Z 10005KT 08/M02 A3037 RMK A01 T00821020  RH  048%=      5-min Rain = 0
KAI1 142337Z 10005KT 08/M02 A3037 RMK A01 T00811020  RH  049%=      5-min Rain = 0
KAI1 142338Z 10005KT 08/M02 A3037 RMK A01 T00801020  RH  049%=      5-min Rain = 0
KAI1 142339Z 10005KT 08/M02 A3037 RMK A01 T00791020  RH  049%=      5-min Rain = 0
KAI1 142340Z 11005KT 08/M02 A3037 RMK A01 T00781021  RH  050%=      5-min Rain = 0
KAI1 142341Z 11005KT 08/M02 A3037 RMK A01 T00771022  RH  050%=      5-min Rain = 0
KAI1 142342Z 11006KT 08/M02 A3037 RMK A01 T00751022  RH  050%=      5-min Rain = 0
KAI1 142343Z 12005KT 07/M02 A3037 RMK A01 T00741023  RH  050%=      5-min Rain = 0
KAI1 142344Z 12005KT 07/M02 A3037 RMK A01 T00731023  RH  051%=      5-min Rain = 0
KAI1 142345Z 12005KT 07/M02 A3037 RMK A01 T00711024  RH  051%=      5-min Rain = 0
KAI1 142346Z 12005KT 07/M02 A3037 RMK A01 T00701024  RH  051%=      5-min Rain = 0
KAI1 142347Z 12005KT 07/M03 A3037 RMK A01 T00691025  RH  051%=      5-min Rain = 0
KAI1 142348Z 12006KT 07/M03 A3037 RMK A01 T00681025  RH  052%=      5-min Rain = 0
KAI1 142349Z 13005KT 07/M03 A3037 RMK A01 T00671025  RH  052%=      5-min Rain = 0
KAI1 142350Z 13005KT 07/M03 A3037 RMK A01 T00661026  RH  052%=      5-min Rain = 0
KAI1 142351Z 13005KT 07/M03 A3037 RMK A01 T00651026  RH  052%=      5-min Rain = 0
KAI1 142352Z 13006KT 07/M03 A3037 RMK A01 T00651027  RH  052%=      5-min Rain = 0
KAI1 142353Z 13006KT 06/M03 A3038 RMK A01 T00641028  RH  052%=      5-min Rain = 0
KAI1 142354Z 13006KT 06/M03 A3038 RMK A01 T00621028  RH  053%=      5-min Rain = 0
KAI1 142355Z 13006KT 06/M03 A3038 RMK A01 T00611028  RH  053%=      5-min Rain = 0
KAI1 142356Z 13006KT 06/M03 A3038 RMK A01 T00601028  RH  053%=      5-min Rain = 0
KAI1 142357Z 13006KT 06/M03 A3038 RMK A01 T00601028  RH  053%=      5-min Rain = 0
KAI1 142358Z 13006KT 06/M03 A3038 RMK A01 T00591028  RH  053%=      5-min Rain = 0
KAI1 142359Z 13006KT 06/M03 A3038 RMK A01 T00591028  RH  054%=      5-min Rain = 0
KAI1 150000Z 13007KT 06/M03 A3038 RMK A01 T00591028  RH  054%=      5-min Rain = 0
KAI1 150001Z 13007KT 06/M03 A3038 RMK A01 T00591027  RH  054%=      5-min Rain = 0
KAI1 150002Z 13006KT 06/M03 A3038 RMK A01 T00591027  RH  054%=      5-min Rain = 0
KAI1 150003Z 13006KT 06/M03 A3038 RMK A01 T00581026  RH  054%=      5-min Rain = 0
KAI1 150004Z 13006KT 06/M03 A3038 RMK A01 T00581027  RH  055%=      5-min Rain = 0
KAI1 150005Z 13007KT 06/M03 A3038 RMK A01 T00571027  RH  055%=      5-min Rain = 0
KAI1 150006Z 13007KT 06/M03 A3038 RMK A01 T00571027  RH  055%=      5-min Rain = 0
KAI1 150007Z 13007KT 06/M03 A3038 RMK A01 T00561026  RH  055%=      5-min Rain = 0
KAI1 150008Z 13007KT 06/M03 A3038 RMK A01 T00561026  RH  055%=      5-min Rain = 0
KAI1 150009Z 13007KT 06/M03 A3038 RMK A01 T00561026  RH  056%=      5-min Rain = 0
KAI1 150010Z 13006KT 06/M03 A3038 RMK A01 T00551026  RH  056%=      5-min Rain = 0
KAI1 150011Z 13006KT 06/M03 A3038 RMK A01 T00551026  RH  056%=      5-min Rain = 0
KAI1 150012Z 13006KT 06/M03 A3038 RMK A01 T00551026  RH  056%=      5-min Rain = 0
KAI1 150013Z 13006KT 05/M03 A3038 RMK A01 T00541027  RH  056%=      5-min Rain = 0
KAI1 150014Z 13006KT 05/M03 A3038 RMK A01 T00531027  RH  056%=      5-min Rain = 0
KAI1 150015Z 13006KT 05/M03 A3038 RMK A01 T00521028  RH  056%=      5-min Rain = 0
KAI1 150016Z 13006KT 05/M03 A3038 RMK A01 T00511029  RH  056%=      5-min Rain = 0
KAI1 150017Z 13006KT 05/M03 A3039 RMK A01 T00501029  RH  056%=      5-min Rain = 0
KAI1 150018Z 13006KT 05/M03 A3039 RMK A01 T00491030  RH  057%=      5-min Rain = 0
KAI1 150019Z 13006KT 05/M03 A3039 RMK A01 T00491030  RH  057%=      5-min Rain = 0
KAI1 150020Z 13006KT 05/M03 A3039 RMK A01 T00481030  RH  057%=      5-min Rain = 0
KAI1 150021Z 13006KT 05/M03 A3039 RMK A01 T00471030  RH  057%=      5-min Rain = 0
KAI1 150022Z 13006KT 05/M03 A3039 RMK A01 T00471030  RH  057%=      5-min Rain = 0
KAI1 150023Z 13006KT 05/M03 A3039 RMK A01 T00471030  RH  057%=      5-min Rain = 0
KAI1 150024Z 13006KT 05/M03 A3039 RMK A01 T00461030  RH  058%=      5-min Rain = 0
KAI1 150025Z 13006KT 05/M03 A3039 RMK A01 T00461030  RH  058%=      5-min Rain = 0
KAI1 150026Z 13006KT 05/M03 A3039 RMK A01 T00461030  RH  058%=      5-min Rain = 0
KAI1 150027Z 13006KT 05/M03 A3039 RMK A01 T00471029  RH  058%=      5-min Rain = 0
KAI1 150028Z 13006KT 05/M03 A3039 RMK A01 T00471029  RH  058%=      5-min Rain = 0
KAI1 150029Z 13006KT 05/M03 A3039 RMK A01 T00481029  RH  058%=      5-min Rain = 0
KAI1 150030Z 13006KT 05/M03 A3039 RMK A01 T00481030  RH  057%=      5-min Rain = 0
KAI1 150031Z 13006KT 05/M03 A3039 RMK A01 T00481030  RH  057%=      5-min Rain = 0
KAI1 150032Z 14004KT 05/M03 A3039 RMK A01 T00471031  RH  057%=      5-min Rain = 0
KAI1 150033Z 14005KT 05/M03 A3039 RMK A01 T00451033  RH  057%=      5-min Rain = 0
KAI1 150034Z 14005KT 04/M03 A3039 RMK A01 T00441032  RH  058%=      5-min Rain = 0
KAI1 150035Z 14005KT 04/M03 A3039 RMK A01 T00431033  RH  058%=      5-min Rain = 0
KAI1 150036Z 14004KT 04/M03 A3039 RMK A01 T00421033  RH  058%=      5-min Rain = 0
KAI1 150037Z 14005KT 04/M03 A3039 RMK A01 T00411034  RH  058%=      5-min Rain = 0
KAI1 150038Z 14005KT 04/M03 A3039 RMK A01 T00391032  RH  059%=      5-min Rain = 0
KAI1 150039Z 14004KT 04/M03 A3039 RMK A01 T00391031  RH  060%=      5-min Rain = 0
KAI1 150040Z 14004KT 04/M03 A3039 RMK A01 T00381031  RH  061%=      5-min Rain = 0
KAI1 150041Z 14005KT 04/M03 A3039 RMK A01 T00371030  RH  062%=      5-min Rain = 0
KAI1 150042Z 14005KT 04/M03 A304 RMK A01 T00361029  RH  062%=      5-min Rain = 0
KAI1 150043Z 14005KT 04/M03 A304 RMK A01 T00361029  RH  063%=      5-min Rain = 0
KAI1 150044Z 14005KT 04/M03 A304 RMK A01 T00361028  RH  063%=      5-min Rain = 0
KAI1 150045Z 14005KT 04/M03 A304 RMK A01 T00351028  RH  063%=      5-min Rain = 0
KAI1 150046Z 14005KT 04/M03 A304 RMK A01 T00351028  RH  063%=      5-min Rain = 0
KAI1 150047Z 14005KT 04/M03 A304 RMK A01 T00351028  RH  064%=      5-min Rain = 0
KAI1 150048Z 14005KT 04/M03 A304 RMK A01 T00351027  RH  064%=      5-min Rain = 0
KAI1 150049Z 14005KT 04/M03 A304 RMK A01 T00351026  RH  064%=      5-min Rain = 0
KAI1 150050Z 14005KT 04/M03 A304 RMK A01 T00371025  RH  064%=      5-min Rain = 0
KAI1 150051Z 14005KT 04/M02 A304 RMK A01 T00391024  RH  064%=      5-min Rain = 0
KAI1 150052Z 14005KT 04/M02 A304 RMK A01 T00401024  RH  063%=      5-min Rain = 0
KAI1 150053Z 14005KT 04/M02 A304 RMK A01 T00411024  RH  063%=      5-min Rain = 0
KAI1 150054Z 14005KT 04/M03 A304 RMK A01 T00411025  RH  062%=      5-min Rain = 0
KAI1 150055Z 14005KT 04/M03 A304 RMK A01 T00411025  RH  062%=      5-min Rain = 0
KAI1 150056Z 14005KT 04/M03 A304 RMK A01 T00411026  RH  062%=      5-min Rain = 0
KAI1 150057Z 14005KT 04/M03 A304 RMK A01 T00401026  RH  062%=      5-min Rain = 0
KAI1 150058Z 15005KT 04/M03 A304 RMK A01 T00391027  RH  062%=      5-min Rain = 0
KAI1 150059Z 15006KT 04/M03 A304 RMK A01 T00391027  RH  062%=      5-min Rain = 0
KAI1 150100Z 15006KT 04/M03 A304 RMK A01 T00381027  RH  062%=      5-min Rain = 0
KAI1 150101Z 15006KT 04/M03 A304 RMK A01 T00381027  RH  063%=      5-min Rain = 0
KAI1 150102Z 14006KT 04/M03 A304 RMK A01 T00381027  RH  063%=      5-min Rain = 0
KAI1 150103Z 14006KT 04/M03 A304 RMK A01 T00381027  RH  063%=      5-min Rain = 0
KAI1 150104Z 14006KT 04/M03 A304 RMK A01 T00371027  RH  063%=      5-min Rain = 0
KAI1 150105Z 14006KT 04/M03 A304 RMK A01 T00371027  RH  063%=      5-min Rain = 0
KAI1 150106Z 14006KT 04/M03 A304 RMK A01 T00371027  RH  063%=      5-min Rain = 0
KAI1 150107Z 14006KT 04/M03 A304 RMK A01 T00371026  RH  064%=      5-min Rain = 0
KAI1 150108Z 14006KT 04/M03 A304 RMK A01 T00361025  RH  064%=      5-min Rain = 0
KAI1 150109Z 14006KT 04/M03 A304 RMK A01 T00361025  RH  064%=      5-min Rain = 0
KAI1 150110Z 14006KT 04/M03 A304 RMK A01 T00361025  RH  064%=      5-min Rain = 0
KAI1 150111Z 14006KT 04/M03 A304 RMK A01 T00371025  RH  064%=      5-min Rain = 0
KAI1 150112Z 13006KT 04/M03 A304 RMK A01 T00381027  RH  063%=      5-min Rain = 0
KAI1 150113Z 14006KT 04/M03 A3041 RMK A01 T00381028  RH  062%=      5-min Rain = 0
KAI1 150114Z 14006KT 04/M03 A3041 RMK A01 T00371029  RH  062%=      5-min Rain = 0
KAI1 150115Z 14006KT 04/M03 A3041 RMK A01 T00361030  RH  062%=      5-min Rain = 0
KAI1 150116Z 14006KT 04/M03 A3041 RMK A01 T00351031  RH  062%=      5-min Rain = 0
KAI1 150117Z 14006KT 03/M03 A3041 RMK A01 T00331030  RH  063%=      5-min Rain = 0
KAI1 150118Z 14006KT 03/M03 A3041 RMK A01 T00321030  RH  063%=      5-min Rain = 0
KAI1 150119Z 14006KT 03/M03 A3041 RMK A01 T00321031  RH  064%=      5-min Rain = 0
KAI1 150120Z 14006KT 03/M03 A3041 RMK A01 T00311031  RH  064%=      5-min Rain = 0
KAI1 150121Z 14006KT 03/M03 A3041 RMK A01 T00301031  RH  064%=      5-min Rain = 0
KAI1 150122Z 13006KT 03/M03 A3041 RMK A01 T00301030  RH  065%=      5-min Rain = 0
KAI1 150123Z 13006KT 03/M03 A3041 RMK A01 T00301029  RH  065%=      5-min Rain = 0
KAI1 150124Z 13006KT 03/M03 A3041 RMK A01 T00301028  RH  066%=      5-min Rain = 0
KAI1 150125Z 13006KT 03/M03 A3041 RMK A01 T00301028  RH  066%=      5-min Rain = 0
KAI1 150126Z 13006KT 03/M03 A3041 RMK A01 T00311027  RH  066%=      5-min Rain = 0
KAI1 150127Z 13006KT 03/M03 A3041 RMK A01 T00311028  RH  065%=      5-min Rain = 0
KAI1 150128Z 13006KT 03/M03 A3041 RMK A01 T00301028  RH  065%=      5-min Rain = 0
KAI1 150129Z 13006KT 03/M03 A3041 RMK A01 T00311029  RH  065%=      5-min Rain = 0
KAI1 150130Z 13006KT 03/M03 A3041 RMK A01 T00311029  RH  065%=      5-min Rain = 0
KAI1 150131Z 13006KT 03/M03 A3041 RMK A01 T00301030  RH  064%=      5-min Rain = 0
KAI1 150132Z 13006KT 03/M03 A3041 RMK A01 T00301031  RH  064%=      5-min Rain = 0
KAI1 150133Z 13006KT 03/M03 A3041 RMK A01 T00291032  RH  065%=      5-min Rain = 0
KAI1 150134Z 13006KT 03/M03 A3041 RMK A01 T00281031  RH  065%=      5-min Rain = 0
KAI1 150135Z 13006KT 03/M03 A3041 RMK A01 T00281031  RH  065%=      5-min Rain = 0
KAI1 150136Z 13006KT 03/M03 A3041 RMK A01 T00281030  RH  066%=      5-min Rain = 0
KAI1 150137Z 13006KT 03/M03 A3041 RMK A01 T00281030  RH  066%=      5-min Rain = 0
KAI1 150138Z 13006KT 03/M03 A3041 RMK A01 T00291029  RH  066%=      5-min Rain = 0
KAI1 150139Z 13006KT 03/M03 A3041 RMK A01 T00291029  RH  066%=      5-min Rain = 0
KAI1 150140Z 14006KT 03/M03 A3041 RMK A01 T00291029  RH  066%=      5-min Rain = 0
KAI1 150141Z 14006KT 03/M03 A3041 RMK A01 T00301028  RH  066%=      5-min Rain = 0
KAI1 150142Z 14006KT 03/M03 A3041 RMK A01 T00311027  RH  066%=      5-min Rain = 0
KAI1 150143Z 14006KT 03/M03 A3041 RMK A01 T00311027  RH  066%=      5-min Rain = 0
KAI1 150144Z 14006KT 03/M03 A3041 RMK A01 T00321027  RH  065%=      5-min Rain = 0
KAI1 150145Z 14006KT 03/M03 A3041 RMK A01 T00321027  RH  065%=      5-min Rain = 0
KAI1 150146Z 14006KT 03/M03 A3041 RMK A01 T00321028  RH  065%=      5-min Rain = 0
KAI1 150147Z 14006KT 03/M03 A3041 RMK A01 T00321027  RH  065%=      5-min Rain = 0
KAI1 150148Z 14007KT 03/M03 A3041 RMK A01 T00321027  RH  065%=      5-min Rain = 0
KAI1 150149Z 14007KT 03/M03 A3041 RMK A01 T00321027  RH  065%=      5-min Rain = 0
KAI1 150150Z 14007KT 03/M03 A3041 RMK A01 T00321028  RH  065%=      5-min Rain = 0
KAI1 150151Z 14007KT 03/M03 A3041 RMK A01 T00311029  RH  065%=      5-min Rain = 0
KAI1 150152Z 14007KT 03/M03 A3041 RMK A01 T00301029  RH  065%=      5-min Rain = 0
KAI1 150153Z 14006KT 03/M03 A3041 RMK A01 T00291030  RH  065%=      5-min Rain = 0
KAI1 150154Z 14006KT 03/M03 A3041 RMK A01 T00281030  RH  066%=      5-min Rain = 0
KAI1 150155Z 14007KT 03/M03 A3041 RMK A01 T00281029  RH  066%=      5-min Rain = 0
KAI1 150156Z 14007KT 03/M03 A3041 RMK A01 T00271029  RH  067%=      5-min Rain = 0
KAI1 150157Z 14007KT 03/M03 A3041 RMK A01 T00271029  RH  067%=      5-min Rain = 0
KAI1 150158Z 14007KT 03/M03 A3041 RMK A01 T00271028  RH  067%=      5-min Rain = 0
KAI1 150159Z 14007KT 03/M03 A3041 RMK A01 T00271029  RH  067%=      5-min Rain = 0
KAI1 150200Z 14007KT 03/M03 A3041 RMK A01 T00261029  RH  067%=      5-min Rain = 0
KAI1 150201Z 14006KT 03/M03 A3041 RMK A01 T00261029  RH  067%=      5-min Rain = 0
KAI1 150202Z 14006KT 03/M03 A3041 RMK A01 T00261030  RH  067%=      5-min Rain = 0
KAI1 150203Z 14006KT 03/M03 A3041 RMK A01 T00251031  RH  067%=      5-min Rain = 0
KAI1 150204Z 15006KT 02/M03 A3041 RMK A01 T00241030  RH  067%=      5-min Rain = 0
KAI1 150205Z 15006KT 02/M03 A3041 RMK A01 T00231029  RH  068%=      5-min Rain = 0
KAI1 150206Z 15006KT 02/M03 A3041 RMK A01 T00231027  RH  069%=      5-min Rain = 0
KAI1 150207Z 15007KT 02/M03 A3041 RMK A01 T00231027  RH  070%=      5-min Rain = 0
KAI1 150208Z 15006KT 02/M03 A3041 RMK A01 T00231026  RH  070%=      5-min Rain = 0
KAI1 150209Z 17005KT 03/M03 A3041 RMK A01 T00251026  RH  069%=      5-min Rain = 0
KAI1 150210Z 15005KT 03/M03 A3041 RMK A01 T00251027  RH  068%=      5-min Rain = 0
KAI1 150211Z 16005KT 03/M03 A3041 RMK A01 T00251027  RH  068%=      5-min Rain = 0
KAI1 150212Z 16005KT 03/M03 A3041 RMK A01 T00251026  RH  069%=      5-min Rain = 0
KAI1 150213Z 17005KT 03/M03 A3041 RMK A01 T00251026  RH  069%=      5-min Rain = 0
KAI1 150214Z 16005KT 03/M03 A3041 RMK A01 T00251026  RH  069%=      5-min Rain = 0
KAI1 150215Z 16005KT 03/M03 A3041 RMK A01 T00251026  RH  069%=      5-min Rain = 0
KAI1 150216Z 17005KT 03/M03 A3041 RMK A01 T00261026  RH  068%=      5-min Rain = 0
KAI1 150217Z 17005KT 02/M03 A3041 RMK A01 T00241027  RH  069%=      5-min Rain = 0
KAI1 150218Z 17005KT 02/M03 A3042 RMK A01 T00241027  RH  069%=      5-min Rain = 0
KAI1 150219Z 17005KT 02/M03 A3042 RMK A01 T00231028  RH  069%=      5-min Rain = 0
KAI1 150220Z 17005KT 02/M03 A3042 RMK A01 T00231028  RH  069%=      5-min Rain = 0
KAI1 150221Z 17004KT 02/M03 A3042 RMK A01 T00221029  RH  069%=      5-min Rain = 0
KAI1 150222Z 18004KT 02/M03 A3041 RMK A01 T00211030  RH  069%=      5-min Rain = 0
KAI1 150223Z 18005KT 02/M03 A3041 RMK A01 T00201031  RH  069%=      5-min Rain = 0
KAI1 150224Z 18005KT 02/M03 A3042 RMK A01 T00181033  RH  069%=      5-min Rain = 0
KAI1 150225Z 17005KT 02/M03 A3042 RMK A01 T00151034  RH  070%=      5-min Rain = 0
KAI1 150226Z 17005KT 01/M03 A3042 RMK A01 T00141033  RH  070%=      5-min Rain = 0
KAI1 150227Z 17005KT 01/M03 A3042 RMK A01 T00141033  RH  071%=      5-min Rain = 0
KAI1 150228Z 17005KT 01/M03 A3042 RMK A01 T00141032  RH  071%=      5-min Rain = 0
KAI1 150229Z 17005KT 01/M03 A3042 RMK A01 T00141032  RH  071%=      5-min Rain = 0
KAI1 150230Z 17005KT 02/M03 A3042 RMK A01 T00151031  RH  071%=      5-min Rain = 0
KAI1 150231Z 17005KT 02/M03 A3042 RMK A01 T00161030  RH  071%=      5-min Rain = 0
KAI1 150232Z 17005KT 02/M03 A3042 RMK A01 T00171030  RH  071%=      5-min Rain = 0
KAI1 150233Z 17005KT 02/M03 A3042 RMK A01 T00171030  RH  071%=      5-min Rain = 0
KAI1 150234Z 18005KT 02/M03 A3042 RMK A01 T00181030  RH  071%=      5-min Rain = 0
KAI1 150235Z 18005KT 02/M03 A3042 RMK A01 T00181031  RH  070%=      5-min Rain = 0
KAI1 150236Z 18005KT 02/M03 A3042 RMK A01 T00181031  RH  070%=      5-min Rain = 0
KAI1 150237Z 18005KT 02/M03 A3042 RMK A01 T00171031  RH  071%=      5-min Rain = 0
KAI1 150238Z 18006KT 02/M03 A3042 RMK A01 T00161031  RH  071%=      5-min Rain = 0
KAI1 150239Z 17006KT 02/M03 A3042 RMK A01 T00171030  RH  071%=      5-min Rain = 0
KAI1 150240Z 17006KT 02/M03 A3042 RMK A01 T00171030  RH  071%=      5-min Rain = 0
KAI1 150241Z 17005KT 02/M03 A3042 RMK A01 T00171031  RH  071%=      5-min Rain = 0
KAI1 150242Z 17005KT 02/M03 A3042 RMK A01 T00161031  RH  071%=      5-min Rain = 0
KAI1 150243Z 17005KT 02/M03 A3042 RMK A01 T00161031  RH  071%=      5-min Rain = 0
KAI1 150244Z 17005KT 02/M03 A3042 RMK A01 T00171030  RH  071%=      5-min Rain = 0
KAI1 150245Z 17005KT 02/M03 A3042 RMK A01 T00171030  RH  071%=      5-min Rain = 0
KAI1 150246Z 18006KT 02/M03 A3042 RMK A01 T00181029  RH  071%=      5-min Rain = 0
KAI1 150247Z 17005KT 02/M03 A3042 RMK A01 T00181030  RH  070%=      5-min Rain = 0
KAI1 150248Z 18006KT 02/M03 A3042 RMK A01 T00181030  RH  070%=      5-min Rain = 0
KAI1 150249Z 20006KT 02/M03 A3042 RMK A01 T00171032  RH  070%=      5-min Rain = 0
KAI1 150250Z 19006KT 02/M03 A3042 RMK A01 T00161033  RH  070%=      5-min Rain = 0
KAI1 150251Z 19005KT 02/M03 A3042 RMK A01 T00161032  RH  070%=      5-min Rain = 0
KAI1 150252Z 19004KT 02/M03 A3042 RMK A01 T00161032  RH  071%=      5-min Rain = 0
KAI1 150253Z 19004KT 01/M04 A3042 RMK A01 T00141035  RH  070%=      5-min Rain = 0
KAI1 150254Z 19004KT 01/M04 A3042 RMK A01 T00131036  RH  070%=      5-min Rain = 0
KAI1 150255Z 18004KT 01/M04 A3042 RMK A01 T00111037  RH  071%=      5-min Rain = 0
KAI1 150256Z 18004KT 01/M04 A3042 RMK A01 T00101037  RH  071%=      5-min Rain = 0
KAI1 150257Z 18005KT 01/M04 A3042 RMK A01 T00091037  RH  071%=      5-min Rain = 0
KAI1 150258Z 18005KT 01/M04 A3042 RMK A01 T00081037  RH  071%=      5-min Rain = 0
KAI1 150259Z 18005KT 01/M04 A3042 RMK A01 T00081036  RH  072%=      5-min Rain = 0
KAI1 150300Z 18005KT 01/M04 A3042 RMK A01 T00091035  RH  073%=      5-min Rain = 0
KAI1 150301Z 18005KT 01/M03 A3042 RMK A01 T00091034  RH  073%=      5-min Rain = 0
KAI1 150302Z 18005KT 01/M03 A3042 RMK A01 T00101034  RH  072%=      5-min Rain = 0
KAI1 150303Z 18005KT 01/M03 A3042 RMK A01 T00111034  RH  072%=      5-min Rain = 0
KAI1 150304Z 18005KT 01/M03 A3042 RMK A01 T00111034  RH  072%=      5-min Rain = 0
KAI1 150305Z 17005KT 01/M03 A3042 RMK A01 T00111034  RH  072%=      5-min Rain = 0
KAI1 150306Z 17005KT 01/M03 A3042 RMK A01 T00101034  RH  072%=      5-min Rain = 0
KAI1 150307Z 17005KT 01/M03 A3042 RMK A01 T00111033  RH  073%=      5-min Rain = 0
KAI1 150308Z 17005KT 01/M03 A3042 RMK A01 T00111033  RH  073%=      5-min Rain = 0
KAI1 150309Z 17005KT 01/M03 A3042 RMK A01 T00111032  RH  073%=      5-min Rain = 0
KAI1 150310Z 17005KT 01/M03 A3042 RMK A01 T00101031  RH  074%=      5-min Rain = 0
KAI1 150311Z 17005KT 01/M03 A3042 RMK A01 T00111030  RH  074%=      5-min Rain = 0
KAI1 150312Z 18006KT 01/M03 A3042 RMK A01 T00131029  RH  074%=      5-min Rain = 0
KAI1 150313Z 17006KT 02/M03 A3042 RMK A01 T00151028  RH  073%=      5-min Rain = 0
KAI1 150314Z 17006KT 02/M03 A3042 RMK A01 T00161028  RH  072%=      5-min Rain = 0
KAI1 150315Z 18006KT 02/M03 A3042 RMK A01 T00171028  RH  072%=      5-min Rain = 0
KAI1 150316Z 18006KT 02/M03 A3042 RMK A01 T00181027  RH  072%=      5-min Rain = 0
KAI1 150317Z 17006KT 02/M03 A3042 RMK A01 T00191026  RH  072%=      5-min Rain = 0
KAI1 150318Z 17006KT 02/M03 A3042 RMK A01 T00191026  RH  072%=      5-min Rain = 0
KAI1 150319Z 17006KT 02/M03 A3042 RMK A01 T00201026  RH  072%=      5-min Rain = 0
KAI1 150320Z 18006KT 02/M03 A3042 RMK A01 T00211025  RH  071%=      5-min Rain = 0
KAI1 150321Z 18006KT 02/M03 A3042 RMK A01 T00221025  RH  071%=      5-min Rain = 0
KAI1 150322Z 18006KT 02/M03 A3042 RMK A01 T00201027  RH  071%=      5-min Rain = 0
KAI1 150323Z 18005KT 02/M03 A3042 RMK A01 T00181028  RH  072%=      5-min Rain = 0
KAI1 150324Z 18006KT 02/M03 A3042 RMK A01 T00171028  RH  072%=      5-min Rain = 0
KAI1 150325Z 18006KT 02/M03 A3042 RMK A01 T00161028  RH  073%=      5-min Rain = 0
KAI1 150326Z 18006KT 02/M03 A3042 RMK A01 T00161027  RH  073%=      5-min Rain = 0
KAI1 150327Z 17006KT 02/M03 A3042 RMK A01 T00161026  RH  074%=      5-min Rain = 0
KAI1 150328Z 17007KT 02/M03 A3042 RMK A01 T00161025  RH  074%=      5-min Rain = 0
KAI1 150329Z 17007KT 02/M02 A3042 RMK A01 T00191023  RH  074%=      5-min Rain = 0
KAI1 150330Z 16007KT 02/M02 A3042 RMK A01 T00211022  RH  073%=      5-min Rain = 0
KAI1 150331Z 16008KT 02/M02 A3042 RMK A01 T00221023  RH  072%=      5-min Rain = 0
KAI1 150332Z 16008KT 02/M02 A3042 RMK A01 T00221024  RH  072%=      5-min Rain = 0
KAI1 150333Z 16007KT 02/M02 A3042 RMK A01 T00221024  RH  072%=      5-min Rain = 0
KAI1 150334Z 17007KT 02/M02 A3042 RMK A01 T00221024  RH  072%=      5-min Rain = 0
KAI1 150335Z 18007KT 02/M02 A3042 RMK A01 T00231023  RH  072%=      5-min Rain = 0
KAI1 150336Z 18007KT 02/M02 A3042 RMK A01 T00241022  RH  071%=      5-min Rain = 0
KAI1 150337Z 17007KT 03/M02 A3042 RMK A01 T00251022  RH  071%=      5-min Rain = 0
KAI1 150338Z 18007KT 03/M02 A3042 RMK A01 T00251022  RH  071%=      5-min Rain = 0
KAI1 150339Z 18007KT 03/M02 A3042 RMK A01 T00261022  RH  071%=      5-min Rain = 0
KAI1 150340Z 17007KT 03/M02 A3042 RMK A01 T00251023  RH  071%=      5-min Rain = 0
KAI1 150341Z 17007KT 03/M02 A3042 RMK A01 T00261022  RH  071%=      5-min Rain = 0
KAI1 150342Z 17007KT 03/M02 A3042 RMK A01 T00251022  RH  071%=      5-min Rain = 0
KAI1 150343Z 18007KT 03/M02 A3043 RMK A01 T00261022  RH  071%=      5-min Rain = 0
KAI1 150344Z 18007KT 03/M02 A3043 RMK A01 T00261022  RH  071%=      5-min Rain = 0
KAI1 150345Z 18006KT 03/M02 A3043 RMK A01 T00261022  RH  071%=      5-min Rain = 0
KAI1 150346Z 18006KT 03/M02 A3043 RMK A01 T00251024  RH  070%=      5-min Rain = 0
KAI1 150347Z 18006KT 02/M03 A3042 RMK A01 T00221028  RH  070%=      5-min Rain = 0
KAI1 150348Z 19006KT 02/M03 A3042 RMK A01 T00191029  RH  071%=      5-min Rain = 0
KAI1 150349Z 18006KT 02/M03 A3042 RMK A01 T00161029  RH  072%=      5-min Rain = 0
KAI1 150350Z 19006KT 01/M03 A3043 RMK A01 T00131031  RH  072%=      5-min Rain = 0
KAI1 150351Z 19006KT 01/M03 A3043 RMK A01 T00101033  RH  073%=      5-min Rain = 0
KAI1 150352Z 19005KT 01/M04 A3043 RMK A01 T00071035  RH  073%=      5-min Rain = 0
KAI1 150353Z 18005KT 01/M04 A3043 RMK A01 T00051035  RH  074%=      5-min Rain = 0
KAI1 150354Z 18005KT 01/M03 A3043 RMK A01 T00051033  RH  075%=      5-min Rain = 0
KAI1 150355Z 18006KT 01/M03 A3042 RMK A01 T00051034  RH  075%=      5-min Rain = 0
KAI1 150356Z 18006KT 01/M03 A3042 RMK A01 T00051033  RH  076%=      5-min Rain = 0
KAI1 150357Z 18006KT 01/M03 A3042 RMK A01 T00061032  RH  076%=      5-min Rain = 0
KAI1 150358Z 17007KT 01/M03 A3042 RMK A01 T00071030  RH  076%=      5-min Rain = 0
KAI1 150359Z 17007KT 01/M03 A3042 RMK A01 T00081029  RH  076%=      5-min Rain = 0
KAI1 150400Z 17007KT 01/M03 A3042 RMK A01 T00101027  RH  076%=      5-min Rain = 0
KAI1 150401Z 17007KT 01/M03 A3042 RMK A01 T00111026  RH  076%=      5-min Rain = 0
KAI1 150402Z 18007KT 01/M03 A3042 RMK A01 T00121025  RH  076%=      5-min Rain = 0
KAI1 150403Z 18007KT 01/M03 A3042 RMK A01 T00141025  RH  075%=      5-min Rain = 0
KAI1 150404Z 18007KT 02/M02 A3042 RMK A01 T00151024  RH  075%=      5-min Rain = 0
KAI1 150405Z 18007KT 02/M02 A3042 RMK A01 T00161024  RH  075%=      5-min Rain = 0
KAI1 150406Z 18007KT 02/M03 A3042 RMK A01 T00171025  RH  074%=      5-min Rain = 0
KAI1 150407Z 18007KT 02/M03 A3042 RMK A01 T00161025  RH  074%=      5-min Rain = 0
KAI1 150408Z 18007KT 02/M03 A3042 RMK A01 T00171026  RH  074%=      5-min Rain = 0
KAI1 150409Z 18007KT 02/M03 A3042 RMK A01 T00161026  RH  074%=      5-min Rain = 0
KAI1 150410Z 18007KT 02/M03 A3042 RMK A01 T00161026  RH  074%=      5-min Rain = 0
KAI1 150411Z 17007KT 02/M03 A3042 RMK A01 T00161025  RH  074%=      5-min Rain = 0
KAI1 150412Z 17007KT 02/M03 A3042 RMK A01 T00161025  RH  074%=      5-min Rain = 0
KAI1 150413Z 17007KT 02/M03 A3042 RMK A01 T00161025  RH  074%=      5-min Rain = 0
KAI1 150414Z 18007KT 02/M03 A3042 RMK A01 T00161025  RH  074%=      5-min Rain = 0
KAI1 150415Z 18007KT 02/M02 A3042 RMK A01 T00161024  RH  074%=      5-min Rain = 0
KAI1 150416Z 18007KT 02/M02 A3042 RMK A01 T00171024  RH  074%=      5-min Rain = 0
KAI1 150417Z 18007KT 02/M02 A3042 RMK A01 T00181024  RH  074%=      5-min Rain = 0
KAI1 150418Z 18007KT 02/M02 A3042 RMK A01 T00181024  RH  074%=      5-min Rain = 0
KAI1 150419Z 18007KT 02/M02 A3042 RMK A01 T00181024  RH  073%=      5-min Rain = 0
KAI1 150420Z 18007KT 02/M03 A3042 RMK A01 T00171025  RH  073%=      5-min Rain = 0
KAI1 150421Z 18007KT 02/M03 A3042 RMK A01 T00171025  RH  074%=      5-min Rain = 0
KAI1 150422Z 18007KT 02/M03 A3043 RMK A01 T00161025  RH  074%=      5-min Rain = 0
KAI1 150423Z 18007KT 02/M03 A3043 RMK A01 T00161025  RH  074%=      5-min Rain = 0
KAI1 150424Z 18007KT 02/M03 A3043 RMK A01 T00161025  RH  074%=      5-min Rain = 0
KAI1 150425Z 18007KT 02/M03 A3043 RMK A01 T00161025  RH  074%=      5-min Rain = 0
KAI1 150426Z 18006KT 01/M03 A3043 RMK A01 T00141029  RH  073%=      5-min Rain = 0
KAI1 150427Z 18006KT 01/M03 A3043 RMK A01 T00101031  RH  074%=      5-min Rain = 0
KAI1 150428Z 18006KT 01/M03 A3043 RMK A01 T00071031  RH  075%=      5-min Rain = 0
KAI1 150429Z 18006KT 01/M03 A3043 RMK A01 T00051032  RH  076%=      5-min Rain = 0
KAI1 150430Z 18006KT 00/M03 A3043 RMK A01 T00031033  RH  077%=      5-min Rain = 0
KAI1 150431Z 18006KT 00/M03 A3043 RMK A01 T00021032  RH  078%=      5-min Rain = 0
KAI1 150432Z 18007KT 00/M03 A3043 RMK A01 T00021030  RH  079%=      5-min Rain = 0
KAI1 150433Z 18006KT 00/M03 A3043 RMK A01 T00031030  RH  079%=      5-min Rain = 0
KAI1 150434Z 18006KT 00/M03 A3043 RMK A01 T00041030  RH  078%=      5-min Rain = 0
KAI1 150435Z 18006KT 00/M03 A3043 RMK A01 T00041030  RH  078%=      5-min Rain = 0
KAI1 150436Z 18006KT 00/M03 A3043 RMK A01 T00041031  RH  078%=      5-min Rain = 0
KAI1 150437Z 19006KT 00/M03 A3043 RMK A01 T00031032  RH  078%=      5-min Rain = 0
KAI1 150438Z 19005KT 00/M03 A3043 RMK A01 T00021032  RH  078%=      5-min Rain = 0
KAI1 150439Z 19005KT 00/M03 A3043 RMK A01 T00011032  RH  078%=      5-min Rain = 0
KAI1 150440Z 19006KT 00/M03 A3043 RMK A01 T00011033  RH  078%=      5-min Rain = 0
KAI1 150441Z 20006KT 00/M03 A3043 RMK A01 T00011033  RH  078%=      5-min Rain = 0
KAI1 150442Z 20006KT 00/M03 A3043 RMK A01 T00011034  RH  078%=      5-min Rain = 0
KAI1 150443Z 19006KT 00/04 A3043 RMK A01 T00-00-36  RH  077%=      5-min Rain = 0
KAI1 150444Z 19006KT M00/M04 A3043 RMK A01 T10021038  RH  077%=      5-min Rain = 0
KAI1 150445Z 19005KT M00/M04 A3043 RMK A01 T10041040  RH  077%=      5-min Rain = 0
KAI1 150446Z 19006KT M01/M04 A3043 RMK A01 T10071041  RH  077%=      5-min Rain = 0
KAI1 150447Z 20006KT M01/M04 A3043 RMK A01 T10081040  RH  079%=      5-min Rain = 0
KAI1 150448Z 20005KT M01/M04 A3043 RMK A01 T10091041  RH  079%=      5-min Rain = 0
KAI1 150449Z 20005KT M01/M04 A3043 RMK A01 T10101042  RH  079%=      5-min Rain = 0
KAI1 150450Z 20005KT M01/M04 A3043 RMK A01 T10121044  RH  079%=      5-min Rain = 0
KAI1 150451Z 20006KT M01/M04 A3043 RMK A01 T10141044  RH  080%=      5-min Rain = 0
KAI1 150452Z 21005KT M02/M05 A3043 RMK A01 T10151045  RH  080%=      5-min Rain = 0
KAI1 150453Z 21006KT M02/M05 A3043 RMK A01 T10171045  RH  081%=      5-min Rain = 0
KAI1 150454Z 21005KT M02/M04 A3043 RMK A01 T10171044  RH  082%=      5-min Rain = 0
KAI1 150455Z 21005KT M02/M04 A3043 RMK A01 T10181043  RH  082%=      5-min Rain = 0
KAI1 150456Z 22005KT M02/M04 A3043 RMK A01 T10181044  RH  083%=      5-min Rain = 0
KAI1 150457Z 22005KT M02/M04 A3043 RMK A01 T10181044  RH  083%=      5-min Rain = 0
KAI1 150458Z 22005KT M02/M04 A3043 RMK A01 T10181043  RH  083%=      5-min Rain = 0
KAI1 150459Z 22005KT M02/M04 A3043 RMK A01 T10181042  RH  084%=      5-min Rain = 0
KAI1 150500Z 22005KT M02/M04 A3043 RMK A01 T10171041  RH  084%=      5-min Rain = 0
KAI1 150501Z 22005KT M02/M04 A3043 RMK A01 T10161040  RH  084%=      5-min Rain = 0
KAI1 150502Z 21005KT M02/M04 A3043 RMK A01 T10161040  RH  084%=      5-min Rain = 0
KAI1 150503Z 21005KT M02/M04 A3043 RMK A01 T10151039  RH  084%=      5-min Rain = 0
KAI1 150504Z 21006KT M02/M04 A3043 RMK A01 T10161040  RH  084%=      5-min Rain = 0
KAI1 150505Z 21005KT M02/M04 A3044 RMK A01 T10151040  RH  084%=      5-min Rain = 0
KAI1 150506Z 20005KT M02/M04 A3044 RMK A01 T10151039  RH  084%=      5-min Rain = 0
KAI1 150507Z 21005KT M02/M04 A3044 RMK A01 T10151039  RH  084%=      5-min Rain = 0
KAI1 150508Z 21006KT M02/M04 A3044 RMK A01 T10151039  RH  084%=      5-min Rain = 0
KAI1 150509Z 21006KT M01/M04 A3044 RMK A01 T10141038  RH  084%=      5-min Rain = 0
KAI1 150510Z 21006KT M01/M04 A3044 RMK A01 T10141038  RH  084%=      5-min Rain = 0
KAI1 150511Z 21006KT M01/M04 A3044 RMK A01 T10141038  RH  084%=      5-min Rain = 0
KAI1 150512Z 21005KT M01/M04 A3044 RMK A01 T10141038  RH  084%=      5-min Rain = 0
KAI1 150513Z 21005KT M01/M04 A3044 RMK A01 T10141038  RH  084%=      5-min Rain = 0
KAI1 150514Z 21005KT M01/M04 A3044 RMK A01 T10141038  RH  084%=      5-min Rain = 0
KAI1 150515Z 21005KT M01/M04 A3043 RMK A01 T10141038  RH  084%=      5-min Rain = 0
KAI1 150516Z 22005KT M01/M04 A3044 RMK A01 T10141038  RH  084%=      5-min Rain = 0
KAI1 150517Z 22005KT M01/M04 A3044 RMK A01 T10141038  RH  084%=      5-min Rain = 0
KAI1 150518Z 22005KT M01/M04 A3044 RMK A01 T10141038  RH  084%=      5-min Rain = 0
KAI1 150519Z 22005KT M01/M04 A3044 RMK A01 T10141038  RH  084%=      5-min Rain = 0
KAI1 150520Z 22005KT M01/M04 A3044 RMK A01 T10141038  RH  084%=      5-min Rain = 0
KAI1 150521Z 22005KT M02/M04 A3044 RMK A01 T10151039  RH  084%=      5-min Rain = 0
KAI1 150522Z 21005KT M02/M04 A3044 RMK A01 T10151039  RH  084%=      5-min Rain = 0
KAI1 150523Z 22005KT M02/M04 A3044 RMK A01 T10151039  RH  084%=      5-min Rain = 0
KAI1 150524Z 22005KT M02/M04 A3044 RMK A01 T10151039  RH  084%=      5-min Rain = 0
KAI1 150525Z 22005KT M02/M04 A3044 RMK A01 T10151039  RH  084%=      5-min Rain = 0
KAI1 150526Z 22005KT M02/M04 A3044 RMK A01 T10151039  RH  084%=      5-min Rain = 0
KAI1 150527Z 22005KT M02/M04 A3044 RMK A01 T10151039  RH  084%=      5-min Rain = 0
KAI1 150528Z 22006KT M02/M04 A3044 RMK A01 T10151038  RH  084%=      5-min Rain = 0
KAI1 150529Z 21006KT M02/M04 A3044 RMK A01 T10151038  RH  084%=      5-min Rain = 0
KAI1 150530Z 22006KT M02/M04 A3044 RMK A01 T10151038  RH  084%=      5-min Rain = 0
KAI1 150531Z 22006KT M02/M04 A3044 RMK A01 T10151038  RH  084%=      5-min Rain = 0
KAI1 150532Z 23006KT M02/M04 A3044 RMK A01 T10151039  RH  084%=      5-min Rain = 0
KAI1 150533Z 23006KT M02/M04 A3044 RMK A01 T10151039  RH  084%=      5-min Rain = 0
KAI1 150534Z 23006KT M02/M04 A3044 RMK A01 T10161040  RH  084%=      5-min Rain = 0
KAI1 150535Z 23006KT M02/M04 A3044 RMK A01 T10171041  RH  084%=      5-min Rain = 0
KAI1 150536Z 23006KT M02/M04 A3044 RMK A01 T10171041  RH  084%=      5-min Rain = 0
KAI1 150537Z 23006KT M02/M04 A3044 RMK A01 T10181041  RH  084%=      5-min Rain = 0
KAI1 150538Z 23007KT M02/M04 A3043 RMK A01 T10181041  RH  084%=      5-min Rain = 0
KAI1 150539Z 23007KT M02/M04 A3043 RMK A01 T10191042  RH  084%=      5-min Rain = 0
KAI1 150540Z 23006KT M02/M04 A3043 RMK A01 T10191042  RH  084%=      5-min Rain = 0
KAI1 150541Z 23006KT M02/M04 A3043 RMK A01 T10191042  RH  085%=      5-min Rain = 0
KAI1 150542Z 23007KT M02/M04 A3043 RMK A01 T10191041  RH  085%=      5-min Rain = 0
KAI1 150543Z 23006KT M02/M04 A3043 RMK A01 T10191041  RH  085%=      5-min Rain = 0
KAI1 150544Z 22006KT M02/M04 A3043 RMK A01 T10191041  RH  085%=      5-min Rain = 0
KAI1 150545Z 23005KT M02/M04 A3043 RMK A01 T10181040  RH  085%=      5-min Rain = 0
KAI1 150546Z 23006KT M02/M04 A3043 RMK A01 T10171039  RH  085%=      5-min Rain = 0
KAI1 150547Z 23006KT M02/M04 A3043 RMK A01 T10161038  RH  085%=      5-min Rain = 0
KAI1 150548Z 23006KT M02/M04 A3043 RMK A01 T10151038  RH  084%=      5-min Rain = 0
KAI1 150549Z 23006KT M02/M04 A3043 RMK A01 T10151039  RH  084%=      5-min Rain = 0
KAI1 150550Z 22006KT M02/M04 A3043 RMK A01 T10151038  RH  084%=      5-min Rain = 0
KAI1 150551Z 23006KT M02/M04 A3043 RMK A01 T10151039  RH  084%=      5-min Rain = 0
KAI1 150552Z 23006KT M02/M04 A3043 RMK A01 T10151039  RH  083%=      5-min Rain = 0
KAI1 150553Z 23006KT M02/M04 A3043 RMK A01 T10151039  RH  084%=      5-min Rain = 0
KAI1 150554Z 23006KT M02/M04 A3043 RMK A01 T10151039  RH  084%=      5-min Rain = 0
KAI1 150555Z 23006KT M02/M04 A3043 RMK A01 T10151039  RH  084%=      5-min Rain = 0
KAI1 150556Z 23006KT M02/M04 A3043 RMK A01 T10151039  RH  084%=      5-min Rain = 0
KAI1 150557Z 23006KT M02/M04 A3043 RMK A01 T10151039  RH  084%=      5-min Rain = 0
KAI1 150558Z 23006KT M02/M04 A3043 RMK A01 T10151039  RH  083%=      5-min Rain = 0
KAI1 150559Z 23006KT M02/M04 A3043 RMK A01 T10151040  RH  083%=      5-min Rain = 0

Page generated in 0.1408 seconds.